Wetterdaten: Sonntag, 20.12.2015
Datum Zeit Temp. Aussen Temp. o. S. +5cm Feuchte Auss BlattFeu 1 Luftdruck Regen Sonnenschein Regendauer Solar Windben Empfang
20.12.2015 00:00 10,9 C 11,1 C 9,4 C 92 % 0 lf 1016,6 hPa 0,0 l/m 0 min 0 min 30 W/m 25,1 km/h (4 Bft) 89,36 %
20.12.2015 00:02 10,9 C 11,1 C 9,4 C 92 % 0 lf 1016,5 hPa 0,0 l/m 0 min 0 min 30 W/m 18,8 km/h (3 Bft) 100,00 %
20.12.2015 00:05 10,9 C 11,1 C 9,4 C 92 % 0 lf 1016,4 hPa 0,0 l/m 0 min 0 min 30 W/m 20,9 km/h (4 Bft) 97,22 %
20.12.2015 00:06 10,9 C 11,1 C 9,4 C 92 % 0 lf 1016,4 hPa 0,0 l/m 0 min 0 min 30 W/m 16,7 km/h (3 Bft) 100,00 %
20.12.2015 00:08 10,8 C 11,1 C 9,4 C 92 % 0 lf 1016,4 hPa 0,0 l/m 0 min 0 min 30 W/m 25,1 km/h (4 Bft) 95,74 %
20.12.2015 00:10 10,8 C 11,1 C 9,4 C 92 % 0 lf 1016,4 hPa 0,0 l/m 0 min 0 min 30 W/m 20,9 km/h (4 Bft) 97,87 %
20.12.2015 00:12 10,8 C 10,6 C 9,4 C 92 % 0 lf 1016,4 hPa 0,0 l/m 0 min 0 min 30 W/m 20,9 km/h (4 Bft) 97,87 %
20.12.2015 00:14 10,8 C 11,1 C 9,4 C 92 % 0 lf 1016,3 hPa 0,0 l/m 0 min 0 min 30 W/m 14,6 km/h (3 Bft) 97,87 %
20.12.2015 00:16 10,8 C 11,1 C 9,4 C 92 % 0 lf 1016,3 hPa 0,0 l/m 0 min 0 min 30 W/m 18,8 km/h (3 Bft) 98,08 %
20.12.2015 00:18 10,8 C 11,1 C 9,4 C 92 % 0 lf 1016,2 hPa 0,0 l/m 0 min 0 min 30 W/m 18,8 km/h (3 Bft) 95,74 %
20.12.2015 00:20 10,8 C 10,6 C 9,4 C 92 % 0 lf 1016,2 hPa 0,0 l/m 0 min 0 min 30 W/m 23,0 km/h (4 Bft) 95,74 %
20.12.2015 00:22 10,8 C 10,6 C 9,4 C 92 % 0 lf 1016,3 hPa 0,0 l/m 0 min 0 min 30 W/m 23,0 km/h (4 Bft) 100,00 %
20.12.2015 00:24 10,8 C 10,6 C 9,4 C 92 % 0 lf 1016,3 hPa 0,0 l/m 0 min 0 min 30 W/m 27,2 km/h (4 Bft) 100,00 %
20.12.2015 00:26 10,7 C 10,6 C 9,4 C 92 % 0 lf 1016,2 hPa 0,0 l/m 0 min 0 min 30 W/m 20,9 km/h (4 Bft) 100,00 %
20.12.2015 00:28 10,7 C 10,6 C 9,4 C 92 % 0 lf 1016,3 hPa 0,0 l/m 0 min 0 min 30 W/m 18,8 km/h (3 Bft) 97,87 %
20.12.2015 00:30 10,7 C 10,6 C 9,4 C 92 % 0 lf 1016,3 hPa 0,0 l/m 0 min 0 min 30 W/m 18,8 km/h (3 Bft) 97,83 %
20.12.2015 00:32 10,7 C 10,6 C 9,4 C 92 % 0 lf 1016,3 hPa 0,0 l/m 0 min 0 min 30 W/m 16,7 km/h (3 Bft) 97,87 %
20.12.2015 00:34 10,7 C 10,6 C 9,4 C 92 % 0 lf 1016,3 hPa 0,0 l/m 0 min 0 min 30 W/m 25,1 km/h (4 Bft) 100,00 %
20.12.2015 00:36 10,7 C 11,1 C 9,4 C 92 % 0 lf 1016,3 hPa 0,0 l/m 0 min 0 min 30 W/m 20,9 km/h (4 Bft) 98,00 %
20.12.2015 00:38 10,7 C 10,6 C 9,4 C 92 % 0 lf 1016,3 hPa 0,0 l/m 0 min 0 min 30 W/m 23,0 km/h (4 Bft) 100,00 %
20.12.2015 00:40 10,7 C 11,1 C 9,4 C 92 % 0 lf 1016,3 hPa 0,0 l/m 0 min 0 min 30 W/m 18,8 km/h (3 Bft) 95,65 %
20.12.2015 00:42 10,7 C 10,6 C 9,4 C 92 % 0 lf 1016,2 hPa 0,0 l/m 0 min 0 min 30 W/m 20,9 km/h (4 Bft) 95,74 %
20.12.2015 00:44 10,7 C 10,6 C 9,4 C 92 % 0 lf 1016,2 hPa 0,0 l/m 0 min 0 min 30 W/m 16,7 km/h (3 Bft) 93,62 %
20.12.2015 00:46 10,7 C 10,6 C 9,4 C 92 % 0 lf 1016,2 hPa 0,0 l/m 0 min 0 min 30 W/m 20,9 km/h (4 Bft) 95,74 %
20.12.2015 00:48 10,7 C 10,6 C 9,4 C 92 % 0 lf 1016,2 hPa 0,0 l/m 0 min 0 min 30 W/m 25,1 km/h (4 Bft) 97,87 %
20.12.2015 00:50 10,7 C 10,6 C 9,4 C 92 % 0 lf 1016,2 hPa 0,0 l/m 0 min 0 min 30 W/m 16,7 km/h (3 Bft) 93,62 %
20.12.2015 00:52 10,7 C 10,6 C 9,4 C 92 % 0 lf 1016,3 hPa 0,0 l/m 0 min 0 min 30 W/m 20,9 km/h (4 Bft) 91,30 %
20.12.2015 00:54 10,7 C 10,6 C 9,4 C 92 % 0 lf 1016,2 hPa 0,0 l/m 0 min 0 min 30 W/m 16,7 km/h (3 Bft) 97,87 %
20.12.2015 00:56 10,6 C 10,6 C 9,4 C 92 % 0 lf 1016,2 hPa 0,0 l/m 0 min 0 min 30 W/m 25,1 km/h (4 Bft) 97,87 %
20.12.2015 00:58 10,6 C 10,6 C 9,4 C 92 % 0 lf 1016,2 hPa 0,0 l/m 0 min 0 min 30 W/m 14,6 km/h (3 Bft) 93,62 %
20.12.2015 01:00 10,6 C 10,6 C 9,4 C 92 % 0 lf 1016,2 hPa 0,0 l/m 0 min 0 min 30 W/m 18,8 km/h (3 Bft) 95,74 %
20.12.2015 01:02 10,6 C 10,6 C 9,4 C 92 % 0 lf 1016,1 hPa 0,0 l/m 0 min 0 min 30 W/m 12,6 km/h (3 Bft) 93,62 %
20.12.2015 01:04 10,6 C 10,6 C 9,4 C 92 % 0 lf 1016,1 hPa 0,0 l/m 0 min 0 min 30 W/m 18,8 km/h (3 Bft) 95,65 %
20.12.2015 01:06 10,6 C 10,6 C 9,4 C 92 % 0 lf 1016,1 hPa 0,0 l/m 0 min 0 min 30 W/m 16,7 km/h (3 Bft) 94,74 %
20.12.2015 01:08 10,6 C 10,6 C 9,4 C 91 % 0 lf 1016,1 hPa 0,0 l/m 0 min 0 min 30 W/m 14,6 km/h (3 Bft) 93,62 %
20.12.2015 01:10 10,6 C 10,6 C 9,4 C 91 % 0 lf 1016,1 hPa 0,0 l/m 0 min 0 min 30 W/m 16,7 km/h (3 Bft) 95,74 %
20.12.2015 01:12 10,6 C 10,6 C 9,4 C 91 % 0 lf 1016,1 hPa 0,0 l/m 0 min 0 min 30 W/m 16,7 km/h (3 Bft) 95,74 %
20.12.2015 01:14 10,6 C 10,6 C 9,4 C 91 % 0 lf 1016,1 hPa 0,0 l/m 0 min 0 min 30 W/m 16,7 km/h (3 Bft) 95,74 %
20.12.2015 01:16 10,6 C 10,6 C 9,4 C 91 % 0 lf 1016,1 hPa 0,0 l/m 0 min 0 min 30 W/m 16,7 km/h (3 Bft) 95,65 %
20.12.2015 01:18 10,6 C 10,6 C 9,4 C 91 % 0 lf 1016,1 hPa 0,0 l/m 0 min 0 min 30 W/m 16,7 km/h (3 Bft) 95,74 %
20.12.2015 01:20 10,6 C 10,6 C 9,4 C 91 % 0 lf 1016,0 hPa 0,0 l/m 0 min 0 min 30 W/m 20,9 km/h (4 Bft) 91,49 %
20.12.2015 01:22 10,6 C 10,6 C 9,4 C 91 % 0 lf 1016,0 hPa 0,0 l/m 0 min 0 min 30 W/m 25,1 km/h (4 Bft) 89,36 %
20.12.2015 01:24 10,6 C 10,6 C 9,4 C 91 % 0 lf 1016,1 hPa 0,0 l/m 0 min 0 min 30 W/m 20,9 km/h (4 Bft) 93,62 %
20.12.2015 01:26 10,6 C 10,6 C 9,4 C 91 % 0 lf 1016,0 hPa 0,0 l/m 0 min 0 min 30 W/m 20,9 km/h (4 Bft) 93,62 %
20.12.2015 01:28 10,7 C 10,6 C 9,4 C 91 % 0 lf 1016,0 hPa 0,0 l/m 0 min 0 min 30 W/m 20,9 km/h (4 Bft) 93,48 %
20.12.2015 01:30 10,7 C 10,6 C 9,4 C 91 % 0 lf 1016,0 hPa 0,0 l/m 0 min 0 min 30 W/m 18,8 km/h (3 Bft) 91,49 %
20.12.2015 01:32 10,7 C 10,6 C 9,4 C 92 % 0 lf 1016,0 hPa 0,0 l/m 0 min 0 min 30 W/m 25,1 km/h (4 Bft) 95,74 %
20.12.2015 01:34 10,7 C 10,6 C 9,4 C 92 % 0 lf 1015,9 hPa 0,0 l/m 0 min 0 min 30 W/m 23,0 km/h (4 Bft) 89,36 %
20.12.2015 01:36 10,6 C 10,6 C 9,4 C 92 % 0 lf 1015,9 hPa 0,0 l/m 0 min 0 min 30 W/m 18,8 km/h (3 Bft) 95,74 %
20.12.2015 01:38 10,6 C 10,6 C 9,4 C 92 % 0 lf 1015,9 hPa 0,0 l/m 0 min 0 min 30 W/m 20,9 km/h (4 Bft) 95,74 %
20.12.2015 01:40 10,6 C 10,6 C 9,4 C 92 % 0 lf 1015,9 hPa 0,0 l/m 0 min 0 min 30 W/m 23,0 km/h (4 Bft) 93,62 %
20.12.2015 01:42 10,6 C 10,6 C 9,4 C 92 % 0 lf 1016,0 hPa 0,0 l/m 0 min 0 min 30 W/m 20,9 km/h (4 Bft) 91,30 %
20.12.2015 01:44 10,6 C 10,6 C 9,4 C 92 % 0 lf 1015,9 hPa 0,0 l/m 0 min 0 min 30 W/m 16,7 km/h (3 Bft) 91,49 %
20.12.2015 01:46 10,6 C 10,6 C 9,4 C 92 % 0 lf 1015,9 hPa 0,0 l/m 0 min 0 min 30 W/m 16,7 km/h (3 Bft) 94,34 %
20.12.2015 01:48 10,6 C 10,6 C 9,4 C 92 % 0 lf 1015,7 hPa 0,0 l/m 0 min 0 min 30 W/m 25,1 km/h (4 Bft) 91,49 %
20.12.2015 01:50 10,6 C 10,6 C 9,4 C 92 % 0 lf 1015,7 hPa 0,0 l/m 0 min 0 min 30 W/m 23,0 km/h (4 Bft) 95,65 %
20.12.2015 01:52 10,6 C 10,6 C 9,4 C 92 % 0 lf 1015,6 hPa 0,0 l/m 0 min 0 min 30 W/m 23,0 km/h (4 Bft) 95,74 %
20.12.2015 01:54 10,6 C 10,6 C 9,4 C 92 % 0 lf 1015,7 hPa 0,0 l/m 0 min 0 min 30 W/m 18,8 km/h (3 Bft) 95,74 %
20.12.2015 01:56 10,6 C 10,6 C 9,4 C 92 % 0 lf 1015,8 hPa 0,0 l/m 0 min 0 min 30 W/m 20,9 km/h (4 Bft) 93,62 %
20.12.2015 01:58 10,6 C 10,6 C 9,4 C 92 % 0 lf 1015,9 hPa 0,0 l/m 0 min 0 min 30 W/m 18,8 km/h (3 Bft) 93,62 %
20.12.2015 02:00 10,6 C 10,6 C 9,4 C 92 % 0 lf 1015,9 hPa 0,0 l/m 0 min 0 min 30 W/m 20,9 km/h (4 Bft) 95,74 %
20.12.2015 02:02 10,6 C 10,6 C 9,4 C 92 % 0 lf 1015,9 hPa 0,0 l/m 0 min 0 min 30 W/m 16,7 km/h (3 Bft) 93,48 %
20.12.2015 02:04 10,6 C 10,6 C 9,4 C 92 % 0 lf 1016,0 hPa 0,0 l/m 0 min 0 min 30 W/m 16,7 km/h (3 Bft) 97,87 %
20.12.2015 02:06 10,6 C 10,6 C 9,4 C 92 % 0 lf 1016,0 hPa 0,0 l/m 0 min 0 min 30 W/m 20,9 km/h (4 Bft) 94,00 %
20.12.2015 02:08 10,6 C 10,6 C 9,4 C 92 % 0 lf 1016,0 hPa 0,0 l/m 0 min 0 min 30 W/m 20,9 km/h (4 Bft) 93,62 %
20.12.2015 02:10 10,6 C 10,6 C 9,4 C 92 % 0 lf 1015,9 hPa 0,0 l/m 0 min 0 min 30 W/m 25,1 km/h (4 Bft) 95,74 %
20.12.2015 02:12 10,6 C 10,6 C 9,4 C 92 % 0 lf 1015,9 hPa 0,0 l/m 0 min 0 min 30 W/m 20,9 km/h (4 Bft) 94,29 %
20.12.2015 02:14 10,6 C 10,6 C 8,9 C 92 % 0 lf 1015,9 hPa 0,0 l/m 0 min 0 min 30 W/m 16,7 km/h (3 Bft) 96,00 %
20.12.2015 02:16 10,6 C 10,6 C 8,9 C 92 % 0 lf 1016,0 hPa 0,0 l/m 0 min 0 min 30 W/m 14,6 km/h (3 Bft) 93,48 %
20.12.2015 02:18 10,6 C 10,6 C 8,9 C 92 % 0 lf 1016,0 hPa 0,0 l/m 0 min 0 min 30 W/m 25,1 km/h (4 Bft) 95,74 %
20.12.2015 02:20 10,6 C 10,6 C 9,4 C 92 % 0 lf 1016,0 hPa 0,0 l/m 0 min 0 min 30 W/m 18,8 km/h (3 Bft) 95,74 %
20.12.2015 02:22 10,6 C 10,6 C 8,9 C 92 % 0 lf 1016,1 hPa 0,0 l/m 0 min 0 min 30 W/m 23,0 km/h (4 Bft) 95,74 %
20.12.2015 02:24 10,6 C 10,6 C 8,9 C 92 % 0 lf 1016,0 hPa 0,0 l/m 0 min 0 min 30 W/m 16,7 km/h (3 Bft) 97,87 %
20.12.2015 02:26 10,6 C 10,6 C 8,9 C 92 % 0 lf 1016,0 hPa 0,0 l/m 0 min 0 min 30 W/m 16,7 km/h (3 Bft) 97,87 %
20.12.2015 02:28 10,6 C 10,6 C 8,9 C 92 % 0 lf 1015,9 hPa 0,0 l/m 0 min 0 min 30 W/m 20,9 km/h (4 Bft) 97,83 %
20.12.2015 02:30 10,6 C 10,6 C 8,9 C 92 % 0 lf 1016,0 hPa 0,0 l/m 0 min 0 min 30 W/m 23,0 km/h (4 Bft) 97,87 %
20.12.2015 02:32 10,5 C 10,6 C 8,9 C 92 % 0 lf 1016,0 hPa 0,0 l/m 0 min 0 min 30 W/m 16,7 km/h (3 Bft) 97,87 %
20.12.2015 02:34 10,5 C 10,6 C 8,9 C 92 % 0 lf 1016,1 hPa 0,0 l/m 0 min 0 min 30 W/m 23,0 km/h (4 Bft) 93,62 %
20.12.2015 02:36 10,5 C 10,6 C 8,9 C 92 % 0 lf 1016,1 hPa 0,0 l/m 0 min 0 min 30 W/m 20,9 km/h (4 Bft) 94,55 %
20.12.2015 02:38 10,5 C 10,6 C 8,9 C 92 % 0 lf 1016,1 hPa 0,0 l/m 0 min 0 min 30 W/m 20,9 km/h (4 Bft) 95,65 %
20.12.2015 02:40 10,5 C 10,6 C 8,9 C 92 % 0 lf 1016,2 hPa 0,0 l/m 0 min 0 min 30 W/m 16,7 km/h (3 Bft) 97,87 %
20.12.2015 02:42 10,5 C 10,6 C 8,9 C 92 % 0 lf 1016,2 hPa 0,0 l/m 0 min 0 min 30 W/m 14,6 km/h (3 Bft) 97,87 %
20.12.2015 02:44 10,5 C 10,6 C 9,4 C 92 % 0 lf 1016,1 hPa 0,0 l/m 0 min 0 min 30 W/m 18,8 km/h (3 Bft) 95,74 %
20.12.2015 02:46 10,5 C 10,6 C 8,9 C 92 % 0 lf 1016,1 hPa 0,0 l/m 0 min 0 min 30 W/m 18,8 km/h (3 Bft) 100,00 %
20.12.2015 02:48 10,5 C 10,6 C 8,9 C 92 % 0 lf 1016,0 hPa 0,0 l/m 0 min 0 min 29 W/m 20,9 km/h (4 Bft) 97,83 %
20.12.2015 02:50 10,5 C 10,6 C 8,9 C 92 % 0 lf 1016,0 hPa 0,0 l/m 0 min 0 min 30 W/m 23,0 km/h (4 Bft) 100,00 %
20.12.2015 02:52 10,5 C 10,6 C 8,9 C 92 % 0 lf 1015,8 hPa 0,0 l/m 0 min 0 min 30 W/m 23,0 km/h (4 Bft) 100,00 %
20.12.2015 02:54 10,5 C 10,6 C 8,9 C 92 % 0 lf 1015,8 hPa 0,0 l/m 0 min 0 min 30 W/m 23,0 km/h (4 Bft) 100,00 %
20.12.2015 02:56 10,4 C 10,6 C 8,9 C 92 % 0 lf 1015,7 hPa 0,0 l/m 0 min 0 min 30 W/m 20,9 km/h (4 Bft) 100,00 %
20.12.2015 02:58 10,4 C 10,6 C 8,9 C 92 % 0 lf 1015,7 hPa 0,0 l/m 0 min 0 min 30 W/m 20,9 km/h (4 Bft) 97,87 %
20.12.2015 03:00 10,4 C 10,6 C 8,9 C 92 % 0 lf 1015,8 hPa 0,0 l/m 0 min 0 min 29 W/m 18,8 km/h (3 Bft) 100,00 %
20.12.2015 03:02 10,4 C 10,6 C 8,9 C 92 % 0 lf 1015,9 hPa 0,0 l/m 0 min 0 min 30 W/m 18,8 km/h (3 Bft) 100,00 %
20.12.2015 03:04 10,4 C 10,6 C 8,9 C 92 % 0 lf 1015,9 hPa 0,0 l/m 0 min 0 min 29 W/m 20,9 km/h (4 Bft) 100,00 %
20.12.2015 03:06 10,4 C 10,6 C 8,9 C 92 % 0 lf 1016,0 hPa 0,0 l/m 0 min 0 min 29 W/m 23,0 km/h (4 Bft) 100,00 %
20.12.2015 03:08 10,4 C 10,6 C 8,9 C 92 % 0 lf 1016,1 hPa 0,0 l/m 0 min 0 min 30 W/m 18,8 km/h (3 Bft) 100,00 %
20.12.2015 03:10 10,4 C 10,6 C 8,9 C 92 % 0 lf 1016,1 hPa 0,0 l/m 0 min 0 min 29 W/m 18,8 km/h (3 Bft) 100,00 %
20.12.2015 03:12 10,4 C 10,6 C 8,9 C 92 % 0 lf 1016,1 hPa 0,0 l/m 0 min 0 min 30 W/m 16,7 km/h (3 Bft) 100,00 %
20.12.2015 03:14 10,4 C 10,6 C 8,9 C 92 % 0 lf 1016,1 hPa 0,0 l/m 0 min 0 min 30 W/m 20,9 km/h (4 Bft) 93,48 %
20.12.2015 03:16 10,4 C 10,6 C 8,9 C 92 % 0 lf 1016,1 hPa 0,0 l/m 0 min 0 min 30 W/m 18,8 km/h (3 Bft) 100,00 %
20.12.2015 03:18 10,4 C 10,6 C 8,9 C 92 % 0 lf 1016,1 hPa 0,0 l/m 0 min 0 min 30 W/m 16,7 km/h (3 Bft) 100,00 %
20.12.2015 03:20 10,4 C 10,6 C 8,9 C 92 % 0 lf 1016,0 hPa 0,0 l/m 0 min 0 min 29 W/m 20,9 km/h (4 Bft) 100,00 %
20.12.2015 03:22 10,4 C 10,6 C 8,9 C 92 % 0 lf 1016,0 hPa 0,0 l/m 0 min 0 min 29 W/m 20,9 km/h (4 Bft) 100,00 %
20.12.2015 03:24 10,4 C 10,6 C 8,9 C 92 % 0 lf 1016,0 hPa 0,0 l/m 0 min 0 min 29 W/m 20,9 km/h (4 Bft) 95,74 %
20.12.2015 03:26 10,4 C 10,6 C 8,9 C 92 % 0 lf 1015,9 hPa 0,0 l/m 0 min 0 min 30 W/m 18,8 km/h (3 Bft) 97,83 %
20.12.2015 03:28 10,3 C 10,6 C 8,9 C 92 % 0 lf 1015,8 hPa 0,0 l/m 0 min 0 min 28 W/m 18,8 km/h (3 Bft) 100,00 %
20.12.2015 03:30 10,3 C 10,6 C 8,9 C 92 % 0 lf 1015,7 hPa 0,0 l/m 0 min 0 min 29 W/m 20,9 km/h (4 Bft) 95,74 %
20.12.2015 03:32 10,3 C 10,6 C 8,9 C 92 % 0 lf 1015,6 hPa 0,0 l/m 0 min 0 min 28 W/m 23,0 km/h (4 Bft) 97,87 %
20.12.2015 03:34 10,3 C 10,6 C 8,9 C 92 % 0 lf 1015,7 hPa 0,0 l/m 0 min 0 min 29 W/m 20,9 km/h (4 Bft) 95,74 %
20.12.2015 03:36 10,3 C 10,6 C 8,9 C 92 % 0 lf 1015,6 hPa 0,0 l/m 0 min 0 min 29 W/m 16,7 km/h (3 Bft) 95,74 %
20.12.2015 03:38 10,3 C 10,6 C 8,9 C 92 % 0 lf 1015,6 hPa 0,0 l/m 0 min 0 min 29 W/m 18,8 km/h (3 Bft) 95,65 %
20.12.2015 03:40 10,3 C 10,6 C 8,9 C 92 % 0 lf 1015,6 hPa 0,0 l/m 0 min 0 min 28 W/m 18,8 km/h (3 Bft) 93,62 %
20.12.2015 03:42 10,3 C 10,6 C 8,9 C 92 % 0 lf 1015,5 hPa 0,0 l/m 0 min 0 min 29 W/m 18,8 km/h (3 Bft) 91,49 %
20.12.2015 03:44 10,3 C 10,6 C 8,9 C 92 % 0 lf 1015,5 hPa 0,0 l/m 0 min 0 min 29 W/m 20,9 km/h (4 Bft) 91,49 %
20.12.2015 03:46 10,3 C 10,6 C 8,9 C 91 % 0 lf 1015,4 hPa 0,0 l/m 0 min 0 min 29 W/m 20,9 km/h (4 Bft) 95,74 %
20.12.2015 03:48 10,3 C 10,6 C 8,9 C 91 % 0 lf 1015,3 hPa 0,0 l/m 0 min 0 min 30 W/m 20,9 km/h (4 Bft) 93,48 %
20.12.2015 03:50 10,3 C 10,6 C 8,9 C 91 % 0 lf 1015,4 hPa 0,0 l/m 0 min 0 min 30 W/m 20,9 km/h (4 Bft) 93,62 %
20.12.2015 03:52 10,3 C 10,6 C 8,9 C 91 % 0 lf 1015,4 hPa 0,0 l/m 0 min 0 min 29 W/m 20,9 km/h (4 Bft) 89,36 %
20.12.2015 03:54 10,3 C 10,6 C 8,9 C 91 % 0 lf 1015,4 hPa 0,0 l/m 0 min 0 min 29 W/m 14,6 km/h (3 Bft) 93,62 %
20.12.2015 03:56 10,3 C 10,6 C 8,9 C 91 % 0 lf 1015,4 hPa 0,0 l/m 0 min 0 min 28 W/m 20,9 km/h (4 Bft) 91,49 %
20.12.2015 03:58 10,3 C 10,6 C 8,9 C 91 % 0 lf 1015,2 hPa 0,0 l/m 0 min 0 min 29 W/m 18,8 km/h (3 Bft) 87,23 %
20.12.2015 04:00 10,3 C 10,6 C 8,9 C 91 % 0 lf 1015,2 hPa 0,0 l/m 0 min 0 min 30 W/m 18,8 km/h (3 Bft) 91,30 %
20.12.2015 04:05 10,3 C 10,6 C 8,9 C 91 % 0 lf 1015,2 hPa 0,0 l/m 0 min 0 min 29 W/m 23,0 km/h (4 Bft) 95,08 %
20.12.2015 04:06 10,3 C 10,6 C 8,9 C 91 % 0 lf 1015,2 hPa 0,0 l/m 0 min 0 min 28 W/m 20,9 km/h (4 Bft) 95,65 %
20.12.2015 04:08 10,3 C 10,6 C 8,9 C 91 % 0 lf 1015,2 hPa 0,0 l/m 0 min 0 min 30 W/m 23,0 km/h (4 Bft) 95,74 %
20.12.2015 04:10 10,3 C 10,6 C 8,9 C 91 % 0 lf 1015,2 hPa 0,0 l/m 0 min 0 min 29 W/m 27,2 km/h (4 Bft) 95,74 %
20.12.2015 04:12 10,3 C 10,6 C 8,9 C 91 % 0 lf 1015,2 hPa 0,0 l/m 0 min 0 min 28 W/m 18,8 km/h (3 Bft) 95,65 %
20.12.2015 04:14 10,3 C 10,6 C 8,9 C 91 % 0 lf 1015,4 hPa 0,0 l/m 0 min 0 min 28 W/m 18,8 km/h (3 Bft) 93,62 %
20.12.2015 04:16 10,3 C 10,6 C 8,9 C 91 % 0 lf 1015,3 hPa 0,0 l/m 0 min 0 min 29 W/m 16,7 km/h (3 Bft) 93,62 %
20.12.2015 04:18 10,3 C 10,6 C 8,9 C 91 % 0 lf 1015,3 hPa 0,0 l/m 0 min 0 min 30 W/m 20,9 km/h (4 Bft) 95,74 %
20.12.2015 04:20 10,3 C 10,6 C 8,9 C 91 % 0 lf 1015,3 hPa 0,0 l/m 0 min 0 min 28 W/m 18,8 km/h (3 Bft) 91,49 %
20.12.2015 04:22 10,3 C 10,6 C 8,9 C 91 % 0 lf 1015,3 hPa 0,0 l/m 0 min 0 min 28 W/m 16,7 km/h (3 Bft) 91,49 %
20.12.2015 04:24 10,3 C 10,6 C 8,9 C 91 % 0 lf 1015,3 hPa 0,0 l/m 0 min 0 min 28 W/m 20,9 km/h (4 Bft) 95,65 %
20.12.2015 04:26 10,3 C 10,6 C 8,9 C 91 % 0 lf 1015,3 hPa 0,0 l/m 0 min 0 min 28 W/m 20,9 km/h (4 Bft) 95,74 %
20.12.2015 04:28 10,3 C 10,6 C 8,9 C 91 % 0 lf 1015,2 hPa 0,0 l/m 0 min 0 min 28 W/m 25,1 km/h (4 Bft) 97,87 %
20.12.2015 04:30 10,3 C 10,6 C 8,9 C 91 % 0 lf 1015,2 hPa 0,0 l/m 0 min 0 min 28 W/m 18,8 km/h (3 Bft) 97,87 %
20.12.2015 04:32 10,3 C 10,6 C 8,9 C 91 % 0 lf 1015,1 hPa 0,0 l/m 0 min 0 min 28 W/m 18,8 km/h (3 Bft) 95,74 %
20.12.2015 04:34 10,3 C 10,6 C 8,9 C 91 % 0 lf 1015,1 hPa 0,0 l/m 0 min 0 min 28 W/m 31,4 km/h (5 Bft) 95,74 %
20.12.2015 04:36 10,3 C 10,6 C 8,9 C 91 % 0 lf 1015,1 hPa 0,0 l/m 0 min 0 min 30 W/m 23,0 km/h (4 Bft) 97,83 %
20.12.2015 04:38 10,3 C 10,6 C 8,9 C 91 % 0 lf 1015,0 hPa 0,0 l/m 0 min 0 min 30 W/m 25,1 km/h (4 Bft) 97,87 %
20.12.2015 04:40 10,3 C 10,6 C 8,9 C 91 % 0 lf 1015,0 hPa 0,0 l/m 0 min 0 min 30 W/m 27,2 km/h (4 Bft) 97,87 %
20.12.2015 04:42 10,3 C 10,6 C 8,9 C 91 % 0 lf 1015,1 hPa 0,0 l/m 0 min 0 min 30 W/m 29,3 km/h (5 Bft) 97,87 %
20.12.2015 04:44 10,3 C 10,6 C 8,9 C 91 % 0 lf 1015,0 hPa 0,0 l/m 0 min 0 min 30 W/m 23,0 km/h (4 Bft) 97,87 %
20.12.2015 04:46 10,3 C 10,6 C 8,9 C 91 % 0 lf 1015,0 hPa 0,0 l/m 0 min 0 min 30 W/m 27,2 km/h (4 Bft) 97,87 %
20.12.2015 04:48 10,3 C 10,6 C 8,9 C 91 % 0 lf 1015,0 hPa 0,0 l/m 0 min 0 min 32 W/m 23,0 km/h (4 Bft) 100,00 %
20.12.2015 04:50 10,3 C 10,6 C 8,9 C 91 % 0 lf 1015,0 hPa 0,0 l/m 0 min 0 min 32 W/m 23,0 km/h (4 Bft) 100,00 %
20.12.2015 04:52 10,3 C 10,6 C 8,9 C 91 % 0 lf 1015,0 hPa 0,0 l/m 0 min 0 min 32 W/m 27,2 km/h (4 Bft) 95,74 %
20.12.2015 04:54 10,3 C 10,6 C 8,9 C 91 % 0 lf 1015,0 hPa 0,0 l/m 0 min 0 min 31 W/m 20,9 km/h (4 Bft) 100,00 %
20.12.2015 04:56 10,3 C 10,6 C 8,9 C 91 % 0 lf 1014,9 hPa 0,0 l/m 0 min 0 min 32 W/m 23,0 km/h (4 Bft) 97,87 %
20.12.2015 04:58 10,3 C 10,6 C 8,9 C 91 % 0 lf 1014,8 hPa 0,0 l/m 0 min 0 min 32 W/m 27,2 km/h (4 Bft) 100,00 %
20.12.2015 05:00 10,3 C 10,6 C 8,9 C 91 % 0 lf 1014,9 hPa 0,0 l/m 0 min 0 min 31 W/m 25,1 km/h (4 Bft) 97,87 %
20.12.2015 05:02 10,3 C 10,6 C 8,9 C 91 % 0 lf 1014,9 hPa 0,0 l/m 0 min 0 min 32 W/m 25,1 km/h (4 Bft) 97,87 %
20.12.2015 05:04 10,3 C 10,6 C 8,9 C 91 % 0 lf 1014,8 hPa 0,0 l/m 0 min 0 min 32 W/m 27,2 km/h (4 Bft) 97,87 %
20.12.2015 05:06 10,3 C 10,6 C 8,9 C 91 % 0 lf 1014,8 hPa 0,0 l/m 0 min 0 min 32 W/m 23,0 km/h (4 Bft) 97,87 %
20.12.2015 05:08 10,3 C 10,6 C 8,9 C 91 % 0 lf 1014,8 hPa 0,0 l/m 0 min 0 min 31 W/m 23,0 km/h (4 Bft) 100,00 %
20.12.2015 05:10 10,3 C 10,6 C 8,9 C 91 % 0 lf 1014,8 hPa 0,0 l/m 0 min 0 min 32 W/m 27,2 km/h (4 Bft) 97,83 %
20.12.2015 05:12 10,3 C 10,6 C 8,9 C 91 % 0 lf 1014,7 hPa 0,0 l/m 0 min 0 min 32 W/m 27,2 km/h (4 Bft) 100,00 %
20.12.2015 05:14 10,3 C 10,6 C 8,9 C 91 % 0 lf 1014,8 hPa 0,0 l/m 0 min 0 min 32 W/m 25,1 km/h (4 Bft) 97,87 %
20.12.2015 05:16 10,2 C 10,6 C 8,9 C 91 % 0 lf 1014,7 hPa 0,0 l/m 0 min 0 min 32 W/m 29,3 km/h (5 Bft) 100,00 %
20.12.2015 05:18 10,2 C 10,6 C 8,9 C 91 % 0 lf 1014,7 hPa 0,0 l/m 0 min 0 min 32 W/m 23,0 km/h (4 Bft) 100,00 %
20.12.2015 05:20 10,2 C 10,6 C 8,9 C 91 % 0 lf 1014,7 hPa 0,0 l/m 0 min 0 min 32 W/m 18,8 km/h (3 Bft) 95,65 %
20.12.2015 05:22 10,2 C 10,6 C 8,9 C 91 % 0 lf 1014,7 hPa 0,0 l/m 0 min 0 min 32 W/m 25,1 km/h (4 Bft) 100,00 %
20.12.2015 05:24 10,2 C 10,6 C 8,9 C 91 % 0 lf 1014,6 hPa 0,0 l/m 0 min 0 min 32 W/m 23,0 km/h (4 Bft) 95,74 %
20.12.2015 05:26 10,2 C 10,6 C 8,9 C 91 % 0 lf 1014,6 hPa 0,0 l/m 0 min 0 min 32 W/m 29,3 km/h (5 Bft) 97,87 %
20.12.2015 05:28 10,2 C 10,6 C 8,9 C 91 % 0 lf 1014,6 hPa 0,0 l/m 0 min 0 min 32 W/m 27,2 km/h (4 Bft) 97,87 %
20.12.2015 05:30 10,2 C 10,6 C 8,9 C 91 % 0 lf 1014,7 hPa 0,0 l/m 0 min 0 min 32 W/m 25,1 km/h (4 Bft) 95,74 %
20.12.2015 05:32 10,2 C 10,6 C 8,9 C 91 % 0 lf 1014,6 hPa 0,0 l/m 0 min 0 min 32 W/m 27,2 km/h (4 Bft) 92,45 %
20.12.2015 05:34 10,2 C 10,6 C 8,9 C 91 % 0 lf 1014,6 hPa 0,0 l/m 0 min 0 min 32 W/m 25,1 km/h (4 Bft) 95,74 %
20.12.2015 05:36 10,2 C 10,6 C 8,9 C 91 % 0 lf 1014,6 hPa 0,0 l/m 0 min 0 min 32 W/m 25,1 km/h (4 Bft) 93,62 %
20.12.2015 05:38 10,2 C 10,6 C 8,9 C 91 % 0 lf 1014,6 hPa 0,0 l/m 0 min 0 min 32 W/m 27,2 km/h (4 Bft) 97,87 %
20.12.2015 05:40 10,2 C 10,6 C 8,9 C 91 % 0 lf 1014,6 hPa 0,0 l/m 0 min 0 min 32 W/m 23,0 km/h (4 Bft) 95,74 %
20.12.2015 05:42 10,2 C 10,6 C 8,9 C 91 % 0 lf 1014,6 hPa 0,0 l/m 0 min 0 min 33 W/m 29,3 km/h (5 Bft) 93,62 %
20.12.2015 05:44 10,2 C 10,6 C 8,9 C 91 % 0 lf 1014,6 hPa 0,0 l/m 0 min 0 min 33 W/m 23,0 km/h (4 Bft) 95,65 %
20.12.2015 05:46 10,2 C 10,6 C 8,9 C 91 % 0 lf 1014,6 hPa 0,0 l/m 0 min 0 min 33 W/m 25,1 km/h (4 Bft) 95,74 %
20.12.2015 05:48 10,2 C 10,6 C 8,9 C 91 % 0 lf 1014,5 hPa 0,0 l/m 0 min 0 min 33 W/m 27,2 km/h (4 Bft) 95,74 %
20.12.2015 05:50 10,2 C 10,6 C 8,9 C 91 % 0 lf 1014,5 hPa 0,0 l/m 0 min 0 min 33 W/m 27,2 km/h (4 Bft) 93,62 %
20.12.2015 05:52 10,2 C 10,6 C 8,9 C 91 % 0 lf 1014,4 hPa 0,0 l/m 0 min 0 min 33 W/m 35,6 km/h (5 Bft) 95,74 %
20.12.2015 05:54 10,2 C 10,6 C 8,9 C 91 % 0 lf 1014,4 hPa 0,0 l/m 0 min 0 min 33 W/m 27,2 km/h (4 Bft) 95,74 %
20.12.2015 05:56 10,2 C 10,6 C 8,9 C 91 % 0 lf 1014,4 hPa 0,0 l/m 0 min 0 min 33 W/m 25,1 km/h (4 Bft) 95,65 %
20.12.2015 05:58 10,2 C 10,6 C 8,9 C 91 % 0 lf 1014,5 hPa 0,0 l/m 0 min 0 min 33 W/m 20,9 km/h (4 Bft) 93,62 %
20.12.2015 06:00 10,2 C 10,6 C 8,9 C 91 % 0 lf 1014,4 hPa 0,0 l/m 0 min 0 min 33 W/m 27,2 km/h (4 Bft) 95,74 %
20.12.2015 06:02 10,2 C 10,6 C 8,9 C 91 % 0 lf 1014,4 hPa 0,0 l/m 0 min 0 min 33 W/m 27,2 km/h (4 Bft) 95,74 %
20.12.2015 06:06 10,2 C 10,6 C 8,9 C 91 % 0 lf 1014,5 hPa 0,0 l/m 0 min 0 min 33 W/m 25,1 km/h (4 Bft) 96,81 %
20.12.2015 06:08 10,2 C 10,6 C 8,9 C 91 % 0 lf 1014,5 hPa 0,0 l/m 0 min 0 min 33 W/m 20,9 km/h (4 Bft) 97,87 %
20.12.2015 06:10 10,2 C 10,6 C 8,9 C 90 % 0 lf 1014,5 hPa 0,0 l/m 0 min 0 min 33 W/m 23,0 km/h (4 Bft) 95,74 %
20.12.2015 06:12 10,2 C 10,6 C 8,9 C 90 % 0 lf 1014,6 hPa 0,0 l/m 0 min 0 min 33 W/m 18,8 km/h (3 Bft) 95,74 %
20.12.2015 06:14 10,2 C 10,6 C 8,9 C 90 % 0 lf 1014,6 hPa 0,0 l/m 0 min 0 min 33 W/m 25,1 km/h (4 Bft) 93,62 %
20.12.2015 06:16 10,2 C 10,6 C 8,9 C 90 % 0 lf 1014,6 hPa 0,0 l/m 0 min 0 min 33 W/m 23,0 km/h (4 Bft) 97,87 %
20.12.2015 06:18 10,2 C 10,6 C 8,9 C 90 % 0 lf 1014,6 hPa 0,0 l/m 0 min 0 min 33 W/m 14,6 km/h (3 Bft) 97,83 %
20.12.2015 06:20 10,2 C 10,6 C 8,9 C 90 % 0 lf 1014,6 hPa 0,0 l/m 0 min 0 min 33 W/m 23,0 km/h (4 Bft) 95,74 %
20.12.2015 06:22 10,2 C 10,6 C 8,9 C 90 % 0 lf 1014,6 hPa 0,0 l/m 0 min 0 min 33 W/m 20,9 km/h (4 Bft) 93,62 %
20.12.2015 06:24 10,2 C 10,6 C 8,9 C 90 % 0 lf 1014,6 hPa 0,0 l/m 0 min 0 min 33 W/m 18,8 km/h (3 Bft) 95,74 %
20.12.2015 06:26 10,2 C 10,6 C 8,9 C 90 % 0 lf 1014,6 hPa 0,0 l/m 0 min 0 min 33 W/m 25,1 km/h (4 Bft) 97,87 %
20.12.2015 06:28 10,2 C 10,6 C 8,9 C 90 % 0 lf 1014,7 hPa 0,0 l/m 0 min 0 min 33 W/m 23,0 km/h (4 Bft) 89,36 %
20.12.2015 06:30 10,2 C 10,6 C 8,9 C 90 % 0 lf 1014,6 hPa 0,0 l/m 0 min 0 min 33 W/m 18,8 km/h (3 Bft) 91,30 %
20.12.2015 06:32 10,1 C 10,0 C 8,9 C 90 % 0 lf 1014,7 hPa 0,0 l/m 0 min 0 min 33 W/m 23,0 km/h (4 Bft) 93,75 %
20.12.2015 06:34 10,1 C 10,6 C 8,9 C 90 % 0 lf 1014,7 hPa 0,0 l/m 0 min 0 min 33 W/m 23,0 km/h (4 Bft) 93,62 %
20.12.2015 06:36 10,1 C 10,0 C 8,9 C 90 % 0 lf 1014,7 hPa 0,0 l/m 0 min 0 min 33 W/m 25,1 km/h (4 Bft) 94,74 %
20.12.2015 06:38 10,1 C 10,6 C 8,9 C 90 % 0 lf 1014,6 hPa 0,0 l/m 0 min 0 min 33 W/m 27,2 km/h (4 Bft) 95,74 %
20.12.2015 06:40 10,1 C 10,6 C 8,9 C 90 % 0 lf 1014,7 hPa 0,0 l/m 0 min 0 min 34 W/m 20,9 km/h (4 Bft) 95,74 %
20.12.2015 06:42 10,1 C 10,6 C 8,9 C 90 % 0 lf 1014,6 hPa 0,0 l/m 0 min 0 min 34 W/m 27,2 km/h (4 Bft) 93,62 %
20.12.2015 06:44 10,1 C 10,6 C 8,9 C 90 % 0 lf 1014,6 hPa 0,0 l/m 0 min 0 min 34 W/m 23,0 km/h (4 Bft) 93,48 %
20.12.2015 06:46 10,1 C 10,6 C 8,9 C 90 % 0 lf 1014,5 hPa 0,0 l/m 0 min 0 min 35 W/m 29,3 km/h (5 Bft) 93,62 %
20.12.2015 06:48 10,1 C 10,6 C 8,9 C 90 % 0 lf 1014,5 hPa 0,0 l/m 0 min 0 min 35 W/m 23,0 km/h (4 Bft) 95,65 %
20.12.2015 06:50 10,1 C 10,0 C 8,9 C 90 % 0 lf 1014,5 hPa 0,0 l/m 0 min 0 min 35 W/m 23,0 km/h (4 Bft) 95,74 %
20.12.2015 06:52 10,1 C 10,6 C 8,9 C 90 % 0 lf 1014,5 hPa 0,0 l/m 0 min 0 min 35 W/m 23,0 km/h (4 Bft) 91,49 %
20.12.2015 06:54 10,1 C 10,6 C 8,9 C 90 % 0 lf 1014,5 hPa 0,0 l/m 0 min 0 min 35 W/m 23,0 km/h (4 Bft) 95,74 %
20.12.2015 06:56 10,1 C 10,0 C 8,9 C 90 % 0 lf 1014,5 hPa 0,0 l/m 0 min 0 min 35 W/m 31,4 km/h (5 Bft) 95,65 %
20.12.2015 06:58 10,1 C 10,6 C 8,9 C 90 % 0 lf 1014,5 hPa 0,0 l/m 0 min 0 min 35 W/m 23,0 km/h (4 Bft) 93,62 %
20.12.2015 07:00 10,1 C 10,6 C 8,9 C 90 % 0 lf 1014,4 hPa 0,0 l/m 0 min 0 min 35 W/m 27,2 km/h (4 Bft) 89,36 %
20.12.2015 07:02 10,1 C 10,6 C 8,9 C 90 % 0 lf 1014,4 hPa 0,0 l/m 0 min 0 min 35 W/m 25,1 km/h (4 Bft) 93,62 %
20.12.2015 07:04 10,1 C 10,6 C 8,9 C 90 % 0 lf 1014,5 hPa 0,0 l/m 0 min 0 min 35 W/m 23,0 km/h (4 Bft) 95,74 %
20.12.2015 07:06 10,1 C 10,0 C 8,9 C 90 % 0 lf 1014,4 hPa 0,0 l/m 0 min 0 min 36 W/m 20,9 km/h (4 Bft) 92,73 %
20.12.2015 07:08 10,1 C 10,0 C 8,9 C 90 % 0 lf 1014,4 hPa 0,0 l/m 0 min 0 min 36 W/m 20,9 km/h (4 Bft) 93,62 %
20.12.2015 07:10 10,1 C 10,0 C 8,9 C 90 % 0 lf 1014,4 hPa 0,0 l/m 0 min 0 min 37 W/m 18,8 km/h (3 Bft) 93,62 %
20.12.2015 07:12 10,1 C 10,0 C 8,9 C 90 % 0 lf 1014,4 hPa 0,0 l/m 0 min 0 min 26 W/m 25,1 km/h (4 Bft) 89,36 %
20.12.2015 07:14 10,1 C 10,0 C 8,9 C 90 % 0 lf 1014,3 hPa 0,0 l/m 0 min 0 min 31 W/m 23,0 km/h (4 Bft) 93,62 %
20.12.2015 07:16 10,1 C 10,0 C 8,9 C 90 % 0 lf 1014,3 hPa 0,0 l/m 0 min 0 min 29 W/m 20,9 km/h (4 Bft) 91,30 %
20.12.2015 07:18 10,1 C 10,0 C 8,9 C 90 % 0 lf 1014,4 hPa 0,0 l/m 0 min 0 min 23 W/m 25,1 km/h (4 Bft) 95,74 %
20.12.2015 07:20 10,1 C 10,0 C 8,9 C 90 % 0 lf 1014,3 hPa 0,0 l/m 0 min 0 min 22 W/m 27,2 km/h (4 Bft) 95,74 %
20.12.2015 07:22 10,1 C 10,0 C 8,9 C 90 % 0 lf 1014,4 hPa 0,0 l/m 0 min 0 min 22 W/m 20,9 km/h (4 Bft) 97,87 %
20.12.2015 07:24 10,1 C 10,0 C 8,9 C 90 % 0 lf 1014,4 hPa 0,0 l/m 0 min 0 min 22 W/m 18,8 km/h (3 Bft) 93,62 %
20.12.2015 07:26 10,1 C 10,0 C 8,9 C 90 % 0 lf 1014,4 hPa 0,0 l/m 0 min 0 min 26 W/m 18,8 km/h (3 Bft) 97,87 %
20.12.2015 07:28 10,1 C 10,0 C 8,9 C 90 % 0 lf 1014,4 hPa 0,0 l/m 0 min 0 min 22 W/m 20,9 km/h (4 Bft) 100,00 %
20.12.2015 07:30 10,1 C 10,0 C 8,9 C 89 % 0 lf 1014,3 hPa 0,0 l/m 0 min 0 min 23 W/m 23,0 km/h (4 Bft) 97,87 %
20.12.2015 07:32 10,1 C 10,0 C 8,9 C 89 % 0 lf 1014,3 hPa 0,0 l/m 0 min 0 min 22 W/m 25,1 km/h (4 Bft) 95,74 %
20.12.2015 07:34 10,1 C 10,0 C 8,9 C 89 % 0 lf 1014,3 hPa 0,0 l/m 0 min 0 min 26 W/m 20,9 km/h (4 Bft) 97,87 %
20.12.2015 07:36 10,1 C 10,0 C 8,9 C 89 % 0 lf 1014,3 hPa 0,0 l/m 0 min 0 min 25 W/m 20,9 km/h (4 Bft) 95,74 %
20.12.2015 07:38 10,1 C 10,0 C 8,9 C 89 % 0 lf 1014,4 hPa 0,0 l/m 0 min 0 min 26 W/m 20,9 km/h (4 Bft) 97,87 %
20.12.2015 07:40 10,1 C 10,0 C 8,9 C 89 % 0 lf 1014,4 hPa 0,0 l/m 0 min 0 min 24 W/m 29,3 km/h (5 Bft) 93,62 %
20.12.2015 07:42 10,1 C 10,0 C 8,9 C 89 % 0 lf 1014,4 hPa 0,0 l/m 0 min 0 min 25 W/m 23,0 km/h (4 Bft) 94,44 %
20.12.2015 07:44 10,1 C 10,0 C 8,9 C 89 % 0 lf 1014,4 hPa 0,0 l/m 0 min 0 min 26 W/m 20,9 km/h (4 Bft) 97,83 %
20.12.2015 07:46 10,0 C 10,0 C 8,3 C 89 % 0 lf 1014,4 hPa 0,0 l/m 0 min 0 min 22 W/m 27,2 km/h (4 Bft) 97,87 %
20.12.2015 07:48 10,0 C 10,0 C 8,9 C 89 % 0 lf 1014,5 hPa 0,0 l/m 0 min 0 min 19 W/m 31,4 km/h (5 Bft) 97,87 %
20.12.2015 07:50 10,0 C 10,0 C 8,9 C 89 % 0 lf 1014,5 hPa 0,0 l/m 0 min 0 min 21 W/m 20,9 km/h (4 Bft) 97,87 %
20.12.2015 07:52 10,0 C 10,0 C 8,9 C 89 % 0 lf 1014,4 hPa 0,0 l/m 0 min 0 min 24 W/m 20,9 km/h (4 Bft) 91,84 %
20.12.2015 07:54 10,0 C 10,0 C 8,9 C 89 % 0 lf 1014,5 hPa 0,0 l/m 0 min 0 min 23 W/m 23,0 km/h (4 Bft) 97,87 %
20.12.2015 07:56 10,0 C 10,0 C 8,3 C 89 % 0 lf 1014,5 hPa 0,0 l/m 0 min 0 min 22 W/m 20,9 km/h (4 Bft) 97,83 %
20.12.2015 07:58 10,0 C 10,0 C 8,3 C 90 % 0 lf 1014,5 hPa 0,0 l/m 0 min 0 min 25 W/m 20,9 km/h (4 Bft) 97,87 %
20.12.2015 08:00 10,0 C 10,0 C 8,3 C 90 % 0 lf 1014,4 hPa 0,0 l/m 0 min 0 min 27 W/m 23,0 km/h (4 Bft) 100,00 %
20.12.2015 08:02 10,0 C 10,0 C 8,3 C 90 % 0 lf 1014,5 hPa 0,0 l/m 0 min 0 min 31 W/m 27,2 km/h (4 Bft) 100,00 %
20.12.2015 08:04 10,0 C 10,0 C 8,3 C 90 % 0 lf 1014,5 hPa 0,0 l/m 0 min 0 min 24 W/m 23,0 km/h (4 Bft) 97,87 %
20.12.2015 08:06 10,0 C 10,0 C 8,3 C 90 % 0 lf 1014,5 hPa 0,0 l/m 0 min 0 min 24 W/m 20,9 km/h (4 Bft) 97,83 %
20.12.2015 08:08 10,0 C 10,0 C 8,3 C 90 % 0 lf 1014,6 hPa 0,0 l/m 0 min 0 min 25 W/m 20,9 km/h (4 Bft) 97,87 %
20.12.2015 08:10 9,9 C 10,0 C 8,3 C 90 % 0 lf 1014,6 hPa 0,0 l/m 0 min 0 min 24 W/m 18,8 km/h (3 Bft) 97,87 %
20.12.2015 08:12 9,9 C 10,0 C 8,3 C 90 % 0 lf 1014,6 hPa 0,0 l/m 0 min 0 min 23 W/m 16,7 km/h (3 Bft) 100,00 %
20.12.2015 08:14 9,9 C 10,0 C 8,3 C 90 % 0 lf 1014,6 hPa 0,0 l/m 0 min 0 min 21 W/m 23,0 km/h (4 Bft) 100,00 %
20.12.2015 08:16 9,9 C 10,0 C 8,3 C 90 % 0 lf 1014,7 hPa 0,0 l/m 0 min 0 min 24 W/m 23,0 km/h (4 Bft) 100,00 %
20.12.2015 08:18 9,9 C 10,0 C 8,3 C 90 % 0 lf 1014,7 hPa 0,0 l/m 0 min 0 min 26 W/m 20,9 km/h (4 Bft) 100,00 %
20.12.2015 08:20 9,9 C 10,0 C 8,3 C 90 % 0 lf 1014,7 hPa 0,0 l/m 0 min 0 min 25 W/m 18,8 km/h (3 Bft) 100,00 %
20.12.2015 08:22 9,9 C 10,0 C 8,3 C 90 % 0 lf 1014,7 hPa 0,0 l/m 0 min 0 min 25 W/m 20,9 km/h (4 Bft) 97,87 %
20.12.2015 08:24 9,9 C 10,0 C 8,3 C 90 % 0 lf 1014,7 hPa 0,0 l/m 0 min 0 min 25 W/m 27,2 km/h (4 Bft) 95,74 %
20.12.2015 08:26 9,9 C 10,0 C 8,3 C 90 % 0 lf 1014,6 hPa 0,0 l/m 0 min 0 min 26 W/m 20,9 km/h (4 Bft) 100,00 %
20.12.2015 08:28 9,9 C 10,0 C 8,3 C 90 % 0 lf 1014,8 hPa 0,0 l/m 0 min 0 min 26 W/m 20,9 km/h (4 Bft) 100,00 %
20.12.2015 08:30 9,9 C 10,0 C 8,3 C 90 % 0 lf 1014,9 hPa 0,0 l/m 0 min 0 min 26 W/m 16,7 km/h (3 Bft) 97,83 %
20.12.2015 08:32 9,8 C 10,0 C 8,3 C 90 % 0 lf 1014,9 hPa 0,0 l/m 0 min 0 min 26 W/m 18,8 km/h (3 Bft) 97,87 %
20.12.2015 08:34 9,8 C 10,0 C 8,3 C 90 % 0 lf 1015,0 hPa 0,0 l/m 0 min 0 min 28 W/m 16,7 km/h (3 Bft) 100,00 %
20.12.2015 08:36 9,8 C 10,0 C 8,3 C 90 % 0 lf 1015,0 hPa 0,0 l/m 0 min 0 min 28 W/m 16,7 km/h (3 Bft) 100,00 %
20.12.2015 08:38 9,8 C 10,0 C 8,3 C 90 % 0 lf 1015,1 hPa 0,0 l/m 0 min 0 min 28 W/m 12,6 km/h (3 Bft) 97,87 %
20.12.2015 08:40 9,8 C 10,0 C 8,3 C 90 % 0 lf 1015,1 hPa 0,0 l/m 0 min 0 min 25 W/m 12,6 km/h (3 Bft) 100,00 %
20.12.2015 08:42 9,8 C 10,0 C 8,3 C 90 % 0 lf 1015,0 hPa 0,0 l/m 0 min 0 min 12 W/m 16,7 km/h (3 Bft) 97,87 %
20.12.2015 08:44 9,8 C 10,0 C 8,3 C 90 % 0 lf 1015,1 hPa 0,0 l/m 0 min 0 min 12 W/m 14,6 km/h (3 Bft) 100,00 %
20.12.2015 08:46 9,8 C 10,0 C 8,3 C 90 % 0 lf 1015,0 hPa 0,0 l/m 0 min 0 min 14 W/m 12,6 km/h (3 Bft) 100,00 %
20.12.2015 08:48 9,8 C 10,0 C 8,3 C 90 % 0 lf 1015,1 hPa 0,0 l/m 0 min 0 min 14 W/m 12,6 km/h (3 Bft) 100,00 %
20.12.2015 08:50 9,8 C 10,0 C 8,3 C 90 % 0 lf 1015,1 hPa 0,0 l/m 0 min 0 min 15 W/m 12,6 km/h (3 Bft) 97,87 %
20.12.2015 08:52 9,8 C 10,0 C 8,3 C 91 % 0 lf 1015,2 hPa 0,0 l/m 0 min 0 min 17 W/m 18,8 km/h (3 Bft) 97,87 %
20.12.2015 08:54 9,8 C 10,0 C 8,3 C 91 % 0 lf 1015,1 hPa 0,0 l/m 0 min 0 min 18 W/m 16,7 km/h (3 Bft) 100,00 %
20.12.2015 08:56 9,8 C 10,0 C 8,3 C 91 % 0 lf 1015,1 hPa 0,0 l/m 0 min 0 min 18 W/m 14,6 km/h (3 Bft) 100,00 %
20.12.2015 08:58 9,7 C 10,0 C 8,3 C 91 % 0 lf 1015,2 hPa 0,0 l/m 0 min 0 min 18 W/m 12,6 km/h (3 Bft) 97,92 %
20.12.2015 09:00 9,7 C 10,0 C 8,3 C 91 % 0 lf 1015,2 hPa 0,0 l/m 0 min 0 min 18 W/m 10,5 km/h (2 Bft) 97,87 %
20.12.2015 09:02 9,7 C 10,0 C 8,3 C 91 % 0 lf 1015,3 hPa 0,0 l/m 0 min 0 min 18 W/m 14,6 km/h (3 Bft) 97,87 %
20.12.2015 09:04 9,7 C 10,0 C 8,3 C 91 % 0 lf 1015,3 hPa 0,0 l/m 0 min 0 min 16 W/m 12,6 km/h (3 Bft) 100,00 %
20.12.2015 09:06 9,7 C 10,0 C 8,3 C 91 % 0 lf 1015,3 hPa 0,0 l/m 0 min 0 min 8 W/m 10,5 km/h (2 Bft) 97,83 %
20.12.2015 09:08 9,7 C 10,0 C 8,3 C 91 % 0 lf 1015,4 hPa 0,0 l/m 0 min 0 min 11 W/m 10,5 km/h (2 Bft) 95,74 %
20.12.2015 09:10 9,7 C 10,0 C 8,3 C 91 % 0 lf 1015,4 hPa 0,0 l/m 0 min 0 min 12 W/m 16,7 km/h (3 Bft) 100,00 %
20.12.2015 09:12 9,7 C 10,0 C 8,3 C 91 % 0 lf 1015,4 hPa 0,0 l/m 0 min 0 min 15 W/m 10,5 km/h (2 Bft) 97,87 %
20.12.2015 09:14 9,7 C 10,0 C 8,3 C 91 % 0 lf 1015,4 hPa 0,0 l/m 0 min 0 min 18 W/m 16,7 km/h (3 Bft) 97,87 %
20.12.2015 09:16 9,7 C 10,0 C 8,3 C 91 % 0 lf 1015,4 hPa 0,0 l/m 0 min 0 min 19 W/m 14,6 km/h (3 Bft) 97,87 %
20.12.2015 09:18 9,7 C 10,0 C 8,3 C 91 % 0 lf 1015,4 hPa 0,0 l/m 0 min 0 min 22 W/m 8,4 km/h (2 Bft) 93,48 %
20.12.2015 09:20 9,7 C 10,0 C 8,3 C 91 % 0 lf 1015,4 hPa 0,0 l/m 0 min 0 min 25 W/m 8,4 km/h (2 Bft) 91,49 %
20.12.2015 09:22 9,7 C 10,0 C 8,3 C 91 % 0 lf 1015,3 hPa 0,0 l/m 0 min 0 min 27 W/m 10,5 km/h (2 Bft) 93,62 %
20.12.2015 09:24 9,7 C 10,0 C 8,3 C 91 % 0 lf 1015,4 hPa 0,0 l/m 0 min 0 min 29 W/m 14,6 km/h (3 Bft) 93,62 %
20.12.2015 09:26 9,7 C 10,0 C 8,9 C 91 % 0 lf 1015,4 hPa 0,0 l/m 0 min 0 min 29 W/m 14,6 km/h (3 Bft) 93,62 %
20.12.2015 09:28 9,7 C 10,0 C 8,9 C 91 % 0 lf 1015,3 hPa 0,0 l/m 0 min 0 min 28 W/m 12,6 km/h (3 Bft) 89,36 %
20.12.2015 09:30 9,7 C 10,0 C 8,9 C 91 % 0 lf 1015,3 hPa 0,0 l/m 0 min 0 min 27 W/m 12,6 km/h (3 Bft) 89,13 %
20.12.2015 09:32 9,7 C 10,0 C 8,9 C 91 % 0 lf 1015,4 hPa 0,0 l/m 0 min 0 min 27 W/m 16,7 km/h (3 Bft) 89,36 %
20.12.2015 09:34 9,7 C 10,6 C 8,9 C 91 % 0 lf 1015,4 hPa 0,0 l/m 0 min 0 min 27 W/m 10,5 km/h (2 Bft) 91,49 %
20.12.2015 09:36 9,8 C 10,6 C 8,9 C 91 % 0 lf 1015,5 hPa 0,0 l/m 0 min 0 min 27 W/m 14,6 km/h (3 Bft) 91,49 %
20.12.2015 09:38 9,8 C 10,6 C 8,9 C 91 % 0 lf 1015,6 hPa 0,0 l/m 0 min 0 min 29 W/m 12,6 km/h (3 Bft) 87,23 %
20.12.2015 09:40 9,8 C 10,6 C 8,9 C 91 % 0 lf 1015,6 hPa 0,0 l/m 0 min 0 min 28 W/m 16,7 km/h (3 Bft) 89,13 %
20.12.2015 09:42 9,8 C 10,6 C 8,9 C 91 % 0 lf 1015,6 hPa 0,0 l/m 0 min 0 min 27 W/m 10,5 km/h (2 Bft) 93,62 %
20.12.2015 09:44 9,8 C 10,6 C 8,9 C 91 % 0 lf 1015,6 hPa 0,0 l/m 0 min 0 min 29 W/m 8,4 km/h (2 Bft) 91,49 %
20.12.2015 09:46 9,8 C 10,6 C 8,9 C 91 % 0 lf 1015,6 hPa 0,0 l/m 0 min 0 min 31 W/m 12,6 km/h (3 Bft) 87,23 %
20.12.2015 09:48 9,8 C 10,6 C 8,9 C 91 % 0 lf 1015,6 hPa 0,0 l/m 0 min 0 min 33 W/m 8,4 km/h (2 Bft) 93,62 %
20.12.2015 09:50 9,8 C 10,6 C 8,9 C 91 % 0 lf 1015,6 hPa 0,0 l/m 0 min 0 min 36 W/m 12,6 km/h (3 Bft) 91,49 %
20.12.2015 09:52 9,9 C 10,6 C 8,9 C 91 % 0 lf 1015,6 hPa 0,0 l/m 0 min 0 min 38 W/m 10,5 km/h (2 Bft) 91,30 %
20.12.2015 09:54 9,9 C 10,6 C 8,9 C 91 % 0 lf 1015,7 hPa 0,0 l/m 0 min 0 min 40 W/m 12,6 km/h (3 Bft) 91,49 %
20.12.2015 09:56 9,9 C 10,6 C 8,9 C 91 % 0 lf 1015,7 hPa 0,0 l/m 0 min 0 min 42 W/m 10,5 km/h (2 Bft) 95,74 %
20.12.2015 09:58 9,9 C 10,6 C 8,9 C 91 % 0 lf 1015,8 hPa 0,0 l/m 0 min 0 min 43 W/m 8,4 km/h (2 Bft) 89,36 %
20.12.2015 10:00 9,9 C 10,6 C 8,9 C 91 % 0 lf 1015,9 hPa 0,0 l/m 0 min 0 min 45 W/m 8,4 km/h (2 Bft) 91,49 %
20.12.2015 10:02 9,9 C 10,6 C 8,9 C 91 % 0 lf 1016,0 hPa 0,0 l/m 0 min 0 min 47 W/m 10,5 km/h (2 Bft) 89,36 %
20.12.2015 10:04 10,0 C 10,6 C 9,4 C 91 % 0 lf 1015,9 hPa 0,0 l/m 0 min 0 min 49 W/m 10,5 km/h (2 Bft) 93,48 %
20.12.2015 10:06 10,0 C 10,6 C 9,4 C 91 % 0 lf 1016,0 hPa 0,0 l/m 0 min 0 min 48 W/m 10,5 km/h (2 Bft) 89,36 %
20.12.2015 10:08 10,0 C 10,6 C 9,4 C 91 % 0 lf 1016,0 hPa 0,0 l/m 0 min 0 min 45 W/m 12,6 km/h (3 Bft) 91,49 %
20.12.2015 10:10 10,1 C 10,6 C 9,4 C 91 % 0 lf 1015,9 hPa 0,0 l/m 0 min 0 min 42 W/m 12,6 km/h (3 Bft) 93,62 %
20.12.2015 10:12 10,1 C 10,6 C 9,4 C 91 % 0 lf 1015,9 hPa 0,0 l/m 0 min 0 min 38 W/m 10,5 km/h (2 Bft) 91,49 %
20.12.2015 10:14 10,1 C 10,6 C 9,4 C 91 % 0 lf 1015,9 hPa 0,0 l/m 0 min 0 min 36 W/m 14,6 km/h (3 Bft) 95,74 %
20.12.2015 10:16 10,1 C 10,6 C 9,4 C 91 % 0 lf 1015,9 hPa 0,0 l/m 0 min 0 min 36 W/m 12,6 km/h (3 Bft) 95,65 %
20.12.2015 10:18 10,1 C 11,1 C 9,4 C 91 % 0 lf 1015,9 hPa 0,0 l/m 0 min 0 min 38 W/m 12,6 km/h (3 Bft) 97,87 %
20.12.2015 10:20 10,2 C 11,1 C 9,4 C 91 % 0 lf 1016,0 hPa 0,0 l/m 0 min 0 min 40 W/m 10,5 km/h (2 Bft) 95,74 %
20.12.2015 10:22 10,2 C 11,1 C 9,4 C 91 % 0 lf 1016,0 hPa 0,0 l/m 0 min 0 min 41 W/m 10,5 km/h (2 Bft) 95,74 %
20.12.2015 10:24 10,2 C 11,1 C 9,4 C 91 % 0 lf 1016,0 hPa 0,0 l/m 0 min 0 min 42 W/m 12,6 km/h (3 Bft) 95,74 %
20.12.2015 10:26 10,2 C 11,1 C 9,4 C 91 % 0 lf 1016,0 hPa 0,0 l/m 0 min 0 min 42 W/m 10,5 km/h (2 Bft) 95,74 %
20.12.2015 10:28 10,2 C 11,1 C 9,4 C 91 % 0 lf 1016,1 hPa 0,0 l/m 0 min 0 min 43 W/m 14,6 km/h (3 Bft) 97,83 %
20.12.2015 10:30 10,3 C 11,1 C 9,4 C 91 % 0 lf 1016,1 hPa 0,0 l/m 0 min 0 min 45 W/m 12,6 km/h (3 Bft) 100,00 %
20.12.2015 10:32 10,3 C 11,1 C 9,4 C 91 % 0 lf 1016,1 hPa 0,0 l/m 0 min 0 min 49 W/m 10,5 km/h (2 Bft) 97,87 %
20.12.2015 10:34 10,3 C 11,1 C 9,4 C 91 % 0 lf 1016,0 hPa 0,0 l/m 0 min 0 min 61 W/m 12,6 km/h (3 Bft) 97,87 %
20.12.2015 10:36 10,3 C 11,1 C 9,4 C 91 % 0 lf 1016,1 hPa 0,0 l/m 0 min 0 min 73 W/m 10,5 km/h (2 Bft) 100,00 %
20.12.2015 10:38 10,4 C 11,1 C 10,0 C 91 % 0 lf 1016,1 hPa 0,0 l/m 0 min 0 min 76 W/m 12,6 km/h (3 Bft) 100,00 %
20.12.2015 10:40 10,4 C 11,1 C 10,0 C 91 % 0 lf 1016,1 hPa 0,0 l/m 0 min 0 min 77 W/m 12,6 km/h (3 Bft) 97,83 %
20.12.2015 10:42 10,4 C 11,1 C 10,0 C 91 % 0 lf 1016,2 hPa 0,0 l/m 0 min 0 min 80 W/m 16,7 km/h (3 Bft) 97,87 %
20.12.2015 10:44 10,4 C 11,7 C 10,0 C 91 % 0 lf 1016,2 hPa 0,0 l/m 0 min 0 min 83 W/m 12,6 km/h (3 Bft) 97,87 %
20.12.2015 10:46 10,5 C 11,7 C 10,0 C 91 % 0 lf 1016,2 hPa 0,0 l/m 0 min 0 min 83 W/m 14,6 km/h (3 Bft) 97,87 %
20.12.2015 10:48 10,6 C 11,7 C 10,0 C 90 % 0 lf 1016,2 hPa 0,0 l/m 0 min 0 min 81 W/m 12,6 km/h (3 Bft) 97,87 %
20.12.2015 10:50 10,6 C 11,7 C 10,0 C 90 % 0 lf 1016,2 hPa 0,0 l/m 0 min 0 min 81 W/m 8,4 km/h (2 Bft) 97,83 %
20.12.2015 10:52 10,6 C 11,7 C 10,0 C 90 % 0 lf 1016,2 hPa 0,0 l/m 0 min 0 min 79 W/m 14,6 km/h (3 Bft) 97,87 %
20.12.2015 10:54 10,7 C 11,7 C 10,0 C 90 % 0 lf 1016,2 hPa 0,0 l/m 0 min 0 min 76 W/m 12,6 km/h (3 Bft) 100,00 %
20.12.2015 10:56 10,7 C 11,7 C 10,0 C 90 % 0 lf 1016,3 hPa 0,0 l/m 0 min 0 min 74 W/m 16,7 km/h (3 Bft) 100,00 %
20.12.2015 10:58 10,7 C 11,7 C 10,0 C 90 % 0 lf 1016,3 hPa 0,0 l/m 0 min 0 min 74 W/m 14,6 km/h (3 Bft) 97,87 %
20.12.2015 11:00 10,8 C 11,7 C 10,0 C 90 % 0 lf 1016,2 hPa 0,0 l/m 0 min 0 min 76 W/m 12,6 km/h (3 Bft) 97,87 %
20.12.2015 11:02 10,8 C 11,7 C 10,0 C 90 % 0 lf 1016,3 hPa 0,0 l/m 0 min 0 min 77 W/m 16,7 km/h (3 Bft) 97,83 %
20.12.2015 11:04 10,8 C 11,7 C 10,0 C 90 % 0 lf 1016,4 hPa 0,0 l/m 0 min 0 min 74 W/m 12,6 km/h (3 Bft) 100,00 %
20.12.2015 11:06 10,9 C 11,7 C 10,0 C 89 % 0 lf 1016,4 hPa 0,0 l/m 0 min 0 min 71 W/m 10,5 km/h (2 Bft) 97,87 %
20.12.2015 11:08 10,9 C 11,7 C 10,0 C 89 % 0 lf 1016,4 hPa 0,0 l/m 0 min 0 min 70 W/m 8,4 km/h (2 Bft) 100,00 %
20.12.2015 11:10 10,9 C 11,7 C 10,0 C 89 % 0 lf 1016,5 hPa 0,0 l/m 0 min 0 min 71 W/m 10,5 km/h (2 Bft) 97,87 %
20.12.2015 11:12 10,9 C 11,7 C 10,0 C 89 % 0 lf 1016,4 hPa 0,0 l/m 0 min 0 min 74 W/m 14,6 km/h (3 Bft) 95,74 %
20.12.2015 11:14 10,9 C 11,7 C 10,0 C 89 % 0 lf 1016,4 hPa 0,0 l/m 0 min 0 min 76 W/m 10,5 km/h (2 Bft) 100,00 %
20.12.2015 11:16 11,0 C 11,7 C 10,0 C 89 % 0 lf 1016,3 hPa 0,0 l/m 0 min 0 min 76 W/m 10,5 km/h (2 Bft) 93,62 %
20.12.2015 11:18 11,0 C 11,7 C 10,0 C 89 % 0 lf 1016,4 hPa 0,0 l/m 0 min 0 min 75 W/m 12,6 km/h (3 Bft) 97,87 %
20.12.2015 11:20 11,0 C 11,7 C 10,0 C 89 % 0 lf 1016,4 hPa 0,0 l/m 0 min 0 min 73 W/m 18,8 km/h (3 Bft) 93,62 %
20.12.2015 11:22 11,1 C 11,7 C 10,0 C 89 % 0 lf 1016,4 hPa 0,0 l/m 0 min 0 min 72 W/m 12,6 km/h (3 Bft) 93,62 %
20.12.2015 11:24 11,1 C 11,7 C 10,0 C 89 % 0 lf 1016,4 hPa 0,0 l/m 0 min 0 min 72 W/m 10,5 km/h (2 Bft) 97,87 %
20.12.2015 11:26 11,1 C 11,7 C 10,0 C 89 % 0 lf 1016,4 hPa 0,0 l/m 0 min 0 min 75 W/m 12,6 km/h (3 Bft) 97,83 %
20.12.2015 11:28 11,1 C 11,7 C 10,0 C 89 % 0 lf 1016,3 hPa 0,0 l/m 0 min 0 min 82 W/m 10,5 km/h (2 Bft) 97,87 %
20.12.2015 11:30 11,1 C 11,7 C 10,0 C 89 % 0 lf 1016,3 hPa 0,0 l/m 0 min 0 min 90 W/m 12,6 km/h (3 Bft) 97,87 %
20.12.2015 11:32 11,1 C 11,7 C 10,0 C 89 % 0 lf 1016,4 hPa 0,0 l/m 0 min 0 min 99 W/m 12,6 km/h (3 Bft) 95,74 %
20.12.2015 11:34 11,2 C 11,7 C 10,6 C 89 % 0 lf 1016,4 hPa 0,0 l/m 0 min 0 min 104 W/m 12,6 km/h (3 Bft) 93,62 %
20.12.2015 11:36 11,2 C 11,7 C 10,6 C 89 % 0 lf 1016,3 hPa 0,0 l/m 0 min 0 min 107 W/m 12,6 km/h (3 Bft) 97,87 %
20.12.2015 11:38 11,2 C 12,2 C 10,6 C 89 % 0 lf 1016,3 hPa 0,0 l/m 0 min 0 min 109 W/m 10,5 km/h (2 Bft) 95,65 %
20.12.2015 11:40 11,2 C 12,2 C 10,6 C 89 % 0 lf 1016,3 hPa 0,0 l/m 0 min 0 min 111 W/m 14,6 km/h (3 Bft) 91,49 %
20.12.2015 11:42 11,2 C 12,2 C 10,6 C 89 % 0 lf 1016,4 hPa 0,0 l/m 0 min 0 min 111 W/m 12,6 km/h (3 Bft) 97,87 %
20.12.2015 11:44 11,2 C 12,2 C 10,6 C 89 % 0 lf 1016,4 hPa 0,0 l/m 0 min 0 min 111 W/m 10,5 km/h (2 Bft) 97,87 %
20.12.2015 11:46 11,2 C 12,2 C 10,6 C 89 % 0 lf 1016,5 hPa 0,0 l/m 0 min 0 min 108 W/m 10,5 km/h (2 Bft) 97,87 %
20.12.2015 11:48 11,3 C 12,2 C 10,6 C 89 % 0 lf 1016,5 hPa 0,0 l/m 0 min 0 min 105 W/m 14,6 km/h (3 Bft) 100,00 %
20.12.2015 11:50 11,3 C 12,2 C 10,6 C 89 % 0 lf 1016,5 hPa 0,0 l/m 0 min 0 min 105 W/m 8,4 km/h (2 Bft) 95,65 %
20.12.2015 11:52 11,3 C 12,2 C 10,6 C 88 % 0 lf 1016,4 hPa 0,0 l/m 0 min 0 min 105 W/m 12,6 km/h (3 Bft) 100,00 %
20.12.2015 11:54 11,3 C 12,2 C 10,6 C 88 % 0 lf 1016,5 hPa 0,0 l/m 0 min 0 min 107 W/m 10,5 km/h (2 Bft) 100,00 %
20.12.2015 11:56 11,3 C 12,2 C 10,6 C 88 % 0 lf 1016,5 hPa 0,0 l/m 0 min 0 min 107 W/m 10,5 km/h (2 Bft) 97,87 %
20.12.2015 11:58 11,4 C 12,2 C 10,6 C 88 % 0 lf 1016,5 hPa 0,0 l/m 0 min 0 min 109 W/m 10,5 km/h (2 Bft) 95,74 %
20.12.2015 12:00 11,4 C 12,2 C 10,6 C 88 % 0 lf 1016,5 hPa 0,0 l/m 0 min 0 min 109 W/m 12,6 km/h (3 Bft) 100,00 %
20.12.2015 12:02 11,4 C 12,2 C 10,6 C 88 % 0 lf 1016,4 hPa 0,0 l/m 0 min 0 min 110 W/m 10,5 km/h (2 Bft) 97,83 %
20.12.2015 12:06 11,4 C 12,8 C 10,6 C 88 % 0 lf 1016,3 hPa 0,0 l/m 0 min 0 min 113 W/m 10,5 km/h (2 Bft) 96,04 %
20.12.2015 12:08 11,4 C 12,2 C 10,6 C 88 % 0 lf 1016,2 hPa 0,0 l/m 0 min 0 min 116 W/m 10,5 km/h (2 Bft) 100,00 %
20.12.2015 12:10 11,5 C 12,2 C 11,1 C 88 % 0 lf 1016,2 hPa 0,0 l/m 0 min 0 min 116 W/m 8,4 km/h (2 Bft) 100,00 %
20.12.2015 12:12 11,5 C 12,2 C 11,1 C 88 % 0 lf 1016,3 hPa 0,0 l/m 0 min 0 min 114 W/m 10,5 km/h (2 Bft) 95,74 %
20.12.2015 12:14 11,5 C 12,2 C 11,1 C 88 % 0 lf 1016,3 hPa 0,0 l/m 0 min 0 min 113 W/m 6,3 km/h (2 Bft) 95,74 %
20.12.2015 12:16 11,6 C 12,2 C 11,1 C 88 % 0 lf 1016,3 hPa 0,0 l/m 0 min 0 min 112 W/m 6,3 km/h (2 Bft) 95,74 %
20.12.2015 12:18 11,6 C 12,2 C 11,1 C 88 % 0 lf 1016,2 hPa 0,0 l/m 0 min 0 min 110 W/m 12,6 km/h (3 Bft) 93,62 %
20.12.2015 12:20 11,6 C 12,2 C 11,1 C 88 % 0 lf 1016,2 hPa 0,0 l/m 0 min 0 min 106 W/m 12,6 km/h (3 Bft) 95,74 %
20.12.2015 12:22 11,6 C 12,2 C 11,1 C 88 % 0 lf 1016,3 hPa 0,0 l/m 0 min 0 min 104 W/m 8,4 km/h (2 Bft) 94,74 %
20.12.2015 12:24 11,6 C 12,2 C 11,1 C 88 % 0 lf 1016,1 hPa 0,0 l/m 0 min 0 min 101 W/m 8,4 km/h (2 Bft) 91,49 %
20.12.2015 12:26 11,7 C 12,2 C 11,1 C 88 % 0 lf 1016,1 hPa 0,0 l/m 0 min 0 min 98 W/m 12,6 km/h (3 Bft) 95,65 %
20.12.2015 12:28 11,7 C 12,2 C 11,1 C 88 % 0 lf 1016,1 hPa 0,0 l/m 0 min 0 min 97 W/m 14,6 km/h (3 Bft) 91,49 %
20.12.2015 12:30 11,7 C 12,2 C 11,1 C 88 % 0 lf 1016,1 hPa 0,0 l/m 0 min 0 min 99 W/m 12,6 km/h (3 Bft) 93,62 %
20.12.2015 12:32 11,7 C 12,2 C 11,1 C 88 % 0 lf 1016,0 hPa 0,0 l/m 0 min 0 min 105 W/m 12,6 km/h (3 Bft) 95,74 %
20.12.2015 12:34 11,7 C 12,8 C 11,1 C 87 % 0 lf 1016,0 hPa 0,0 l/m 0 min 0 min 114 W/m 16,7 km/h (3 Bft) 93,62 %
20.12.2015 12:36 11,7 C 12,8 C 11,1 C 87 % 0 lf 1016,0 hPa 0,0 l/m 0 min 0 min 125 W/m 14,6 km/h (3 Bft) 95,74 %
20.12.2015 12:38 11,8 C 12,8 C 11,1 C 87 % 0 lf 1015,9 hPa 0,0 l/m 2 min 0 min 137 W/m 14,6 km/h (3 Bft) 95,65 %
20.12.2015 12:40 11,8 C 13,3 C 11,1 C 87 % 0 lf 1015,8 hPa 0,0 l/m 2 min 0 min 180 W/m 16,7 km/h (3 Bft) 93,62 %
20.12.2015 12:42 11,8 C 13,3 C 11,7 C 87 % 0 lf 1015,8 hPa 0,0 l/m 2 min 0 min 153 W/m 14,6 km/h (3 Bft) 95,74 %
20.12.2015 12:44 11,8 C 13,3 C 11,7 C 87 % 0 lf 1015,8 hPa 0,0 l/m 2 min 0 min 143 W/m 18,8 km/h (3 Bft) 95,74 %
20.12.2015 12:46 11,9 C 13,3 C 11,7 C 87 % 0 lf 1015,7 hPa 0,0 l/m 2 min 0 min 147 W/m 16,7 km/h (3 Bft) 95,74 %
20.12.2015 12:48 11,9 C 13,3 C 11,7 C 87 % 0 lf 1015,7 hPa 0,0 l/m 2 min 0 min 142 W/m 14,6 km/h (3 Bft) 91,49 %
20.12.2015 12:50 11,9 C 13,3 C 11,7 C 87 % 0 lf 1015,7 hPa 0,0 l/m 0 min 0 min 122 W/m 10,5 km/h (2 Bft) 93,48 %
20.12.2015 12:52 12,0 C 13,3 C 11,7 C 87 % 0 lf 1015,8 hPa 0,0 l/m 2 min 0 min 134 W/m 10,5 km/h (2 Bft) 91,49 %
20.12.2015 12:54 12,0 C 13,3 C 11,7 C 87 % 0 lf 1015,9 hPa 0,0 l/m 2 min 0 min 140 W/m 10,5 km/h (2 Bft) 97,87 %
20.12.2015 12:56 12,1 C 13,3 C 11,7 C 87 % 0 lf 1015,9 hPa 0,0 l/m 0 min 0 min 128 W/m 12,6 km/h (3 Bft) 93,62 %
20.12.2015 12:58 12,1 C 12,8 C 11,7 C 87 % 0 lf 1015,9 hPa 0,0 l/m 0 min 0 min 131 W/m 12,6 km/h (3 Bft) 91,49 %
20.12.2015 13:00 12,1 C 12,8 C 11,7 C 87 % 0 lf 1016,1 hPa 0,0 l/m 0 min 0 min 125 W/m 14,6 km/h (3 Bft) 93,48 %
20.12.2015 13:02 12,1 C 12,8 C 11,7 C 86 % 0 lf 1016,1 hPa 0,0 l/m 0 min 0 min 119 W/m 14,6 km/h (3 Bft) 91,49 %
20.12.2015 13:04 12,2 C 12,8 C 11,7 C 86 % 0 lf 1016,1 hPa 0,0 l/m 0 min 0 min 116 W/m 10,5 km/h (2 Bft) 93,62 %
20.12.2015 13:06 12,2 C 12,8 C 11,7 C 86 % 0 lf 1016,1 hPa 0,0 l/m 0 min 0 min 119 W/m 14,6 km/h (3 Bft) 93,62 %
20.12.2015 13:08 12,2 C 12,8 C 11,7 C 86 % 0 lf 1016,1 hPa 0,0 l/m 0 min 0 min 120 W/m 12,6 km/h (3 Bft) 95,74 %
20.12.2015 13:10 12,2 C 12,8 C 11,7 C 86 % 0 lf 1016,1 hPa 0,0 l/m 0 min 0 min 117 W/m 12,6 km/h (3 Bft) 91,49 %
20.12.2015 13:12 12,2 C 12,8 C 11,7 C 86 % 0 lf 1016,2 hPa 0,0 l/m 0 min 0 min 111 W/m 16,7 km/h (3 Bft) 95,65 %
20.12.2015 13:14 12,2 C 12,8 C 11,1 C 86 % 0 lf 1016,2 hPa 0,0 l/m 0 min 0 min 111 W/m 12,6 km/h (3 Bft) 95,74 %
20.12.2015 13:16 12,2 C 12,8 C 11,1 C 86 % 0 lf 1016,2 hPa 0,0 l/m 0 min 0 min 110 W/m 16,7 km/h (3 Bft) 95,74 %
20.12.2015 13:18 12,2 C 12,8 C 11,1 C 86 % 0 lf 1016,2 hPa 0,0 l/m 0 min 0 min 108 W/m 10,5 km/h (2 Bft) 93,62 %
20.12.2015 13:20 12,2 C 12,8 C 11,1 C 86 % 0 lf 1016,2 hPa 0,0 l/m 0 min 0 min 109 W/m 12,6 km/h (3 Bft) 95,74 %
20.12.2015 13:22 12,2 C 12,8 C 11,1 C 86 % 0 lf 1016,2 hPa 0,0 l/m 0 min 0 min 112 W/m 10,5 km/h (2 Bft) 93,62 %
20.12.2015 13:24 12,2 C 12,8 C 11,1 C 86 % 0 lf 1016,1 hPa 0,0 l/m 0 min 0 min 117 W/m 12,6 km/h (3 Bft) 93,48 %
20.12.2015 13:26 12,2 C 12,8 C 11,1 C 86 % 0 lf 1016,1 hPa 0,0 l/m 0 min 0 min 121 W/m 10,5 km/h (2 Bft) 97,87 %
20.12.2015 13:28 12,2 C 12,8 C 11,1 C 86 % 0 lf 1016,2 hPa 0,0 l/m 0 min 0 min 120 W/m 10,5 km/h (2 Bft) 93,62 %
20.12.2015 13:30 12,2 C 12,8 C 11,7 C 86 % 0 lf 1016,3 hPa 0,0 l/m 0 min 0 min 118 W/m 8,4 km/h (2 Bft) 95,74 %
20.12.2015 13:32 12,2 C 12,8 C 11,7 C 86 % 0 lf 1016,3 hPa 0,0 l/m 0 min 0 min 117 W/m 12,6 km/h (3 Bft) 91,49 %
20.12.2015 13:34 12,2 C 12,8 C 11,7 C 86 % 0 lf 1016,4 hPa 0,0 l/m 0 min 0 min 116 W/m 8,4 km/h (2 Bft) 97,87 %
20.12.2015 13:36 12,2 C 13,3 C 11,7 C 86 % 0 lf 1016,5 hPa 0,0 l/m 0 min 0 min 111 W/m 6,3 km/h (2 Bft) 95,65 %
20.12.2015 13:38 12,2 C 13,3 C 11,7 C 86 % 0 lf 1016,5 hPa 0,0 l/m 0 min 0 min 108 W/m 6,3 km/h (2 Bft) 95,74 %
20.12.2015 13:40 12,3 C 12,8 C 11,7 C 86 % 0 lf 1016,4 hPa 0,0 l/m 0 min 0 min 107 W/m 8,4 km/h (2 Bft) 93,62 %
20.12.2015 13:42 12,3 C 12,8 C 11,7 C 86 % 0 lf 1016,5 hPa 0,0 l/m 0 min 0 min 104 W/m 8,4 km/h (2 Bft) 93,62 %
20.12.2015 13:44 12,3 C 12,8 C 11,7 C 86 % 0 lf 1016,5 hPa 0,0 l/m 0 min 0 min 103 W/m 10,5 km/h (2 Bft) 95,74 %
20.12.2015 13:46 12,3 C 12,8 C 11,7 C 86 % 0 lf 1016,5 hPa 0,0 l/m 0 min 0 min 101 W/m 8,4 km/h (2 Bft) 95,65 %
20.12.2015 13:48 12,3 C 13,3 C 11,7 C 86 % 0 lf 1016,4 hPa 0,0 l/m 0 min 0 min 98 W/m 8,4 km/h (2 Bft) 95,74 %
20.12.2015 13:50 12,3 C 13,3 C 11,7 C 86 % 0 lf 1016,3 hPa 0,0 l/m 0 min 0 min 100 W/m 10,5 km/h (2 Bft) 97,87 %
20.12.2015 13:52 12,3 C 13,3 C 11,7 C 86 % 0 lf 1016,2 hPa 0,0 l/m 0 min 0 min 107 W/m 6,3 km/h (2 Bft) 95,74 %
20.12.2015 13:54 12,3 C 13,3 C 11,7 C 86 % 0 lf 1016,2 hPa 0,0 l/m 0 min 0 min 113 W/m 8,4 km/h (2 Bft) 97,87 %
20.12.2015 13:56 12,3 C 13,3 C 11,7 C 86 % 0 lf 1016,1 hPa 0,0 l/m 2 min 0 min 116 W/m 8,4 km/h (2 Bft) 97,87 %
20.12.2015 13:58 12,3 C 13,3 C 11,7 C 86 % 0 lf 1016,2 hPa 0,0 l/m 2 min 0 min 118 W/m 10,5 km/h (2 Bft) 95,65 %
20.12.2015 14:00 12,3 C 13,9 C 11,7 C 86 % 0 lf 1016,1 hPa 0,0 l/m 2 min 0 min 115 W/m 10,5 km/h (2 Bft) 95,74 %
20.12.2015 14:02 12,4 C 13,3 C 11,7 C 86 % 0 lf 1016,1 hPa 0,0 l/m 0 min 0 min 109 W/m 14,6 km/h (3 Bft) 100,00 %
20.12.2015 14:04 12,4 C 13,3 C 11,7 C 86 % 0 lf 1016,1 hPa 0,0 l/m 0 min 0 min 104 W/m 12,6 km/h (3 Bft) 97,87 %
20.12.2015 14:06 12,4 C 13,3 C 11,7 C 86 % 0 lf 1016,0 hPa 0,0 l/m 0 min 0 min 102 W/m 12,6 km/h (3 Bft) 97,87 %
20.12.2015 14:08 12,4 C 13,3 C 11,7 C 86 % 0 lf 1016,0 hPa 0,0 l/m 0 min 0 min 100 W/m 14,6 km/h (3 Bft) 95,74 %
20.12.2015 14:10 12,4 C 13,3 C 11,7 C 86 % 0 lf 1015,8 hPa 0,0 l/m 0 min 0 min 100 W/m 16,7 km/h (3 Bft) 97,83 %
20.12.2015 14:12 12,4 C 13,3 C 11,7 C 86 % 0 lf 1015,9 hPa 0,0 l/m 0 min 0 min 97 W/m 12,6 km/h (3 Bft) 95,74 %
20.12.2015 14:14 12,4 C 13,3 C 11,7 C 86 % 0 lf 1015,9 hPa 0,0 l/m 0 min 0 min 97 W/m 14,6 km/h (3 Bft) 97,87 %
20.12.2015 14:16 12,4 C 13,3 C 11,7 C 86 % 0 lf 1015,9 hPa 0,0 l/m 0 min 0 min 97 W/m 14,6 km/h (3 Bft) 100,00 %
20.12.2015 14:18 12,4 C 13,3 C 11,7 C 86 % 0 lf 1015,9 hPa 0,0 l/m 0 min 0 min 100 W/m 14,6 km/h (3 Bft) 97,87 %
20.12.2015 14:20 12,4 C 13,3 C 11,7 C 86 % 0 lf 1016,0 hPa 0,0 l/m 0 min 0 min 102 W/m 16,7 km/h (3 Bft) 100,00 %
20.12.2015 14:22 12,4 C 12,8 C 11,7 C 86 % 0 lf 1016,0 hPa 0,0 l/m 0 min 0 min 99 W/m 14,6 km/h (3 Bft) 97,92 %
20.12.2015 14:24 12,4 C 12,8 C 11,7 C 86 % 0 lf 1015,9 hPa 0,0 l/m 0 min 0 min 97 W/m 14,6 km/h (3 Bft) 97,87 %
20.12.2015 14:26 12,5 C 12,8 C 11,1 C 86 % 0 lf 1016,0 hPa 0,0 l/m 0 min 0 min 97 W/m 14,6 km/h (3 Bft) 100,00 %
20.12.2015 14:28 12,4 C 12,8 C 11,1 C 86 % 0 lf 1016,1 hPa 0,0 l/m 0 min 0 min 96 W/m 12,6 km/h (3 Bft) 97,87 %
20.12.2015 14:30 12,5 C 12,8 C 11,1 C 86 % 0 lf 1016,1 hPa 0,0 l/m 0 min 0 min 91 W/m 14,6 km/h (3 Bft) 100,00 %
20.12.2015 14:32 12,5 C 12,8 C 11,1 C 86 % 0 lf 1016,1 hPa 0,0 l/m 0 min 0 min 90 W/m 16,7 km/h (3 Bft) 100,00 %
20.12.2015 14:34 12,4 C 12,8 C 11,1 C 86 % 0 lf 1016,1 hPa 0,0 l/m 0 min 0 min 90 W/m 16,7 km/h (3 Bft) 100,00 %
20.12.2015 14:36 12,4 C 12,8 C 11,1 C 86 % 0 lf 1016,2 hPa 0,0 l/m 0 min 0 min 89 W/m 20,9 km/h (4 Bft) 100,00 %
20.12.2015 14:38 12,4 C 12,8 C 11,1 C 86 % 0 lf 1016,2 hPa 0,0 l/m 0 min 0 min 85 W/m 20,9 km/h (4 Bft) 97,87 %
20.12.2015 14:40 12,4 C 12,8 C 11,1 C 86 % 0 lf 1016,2 hPa 0,0 l/m 0 min 0 min 83 W/m 14,6 km/h (3 Bft) 95,74 %
20.12.2015 14:42 12,4 C 12,8 C 11,1 C 86 % 0 lf 1016,3 hPa 0,0 l/m 0 min 0 min 80 W/m 18,8 km/h (3 Bft) 100,00 %
20.12.2015 14:44 12,4 C 12,8 C 11,1 C 86 % 0 lf 1016,2 hPa 0,0 l/m 0 min 0 min 78 W/m 18,8 km/h (3 Bft) 97,83 %
20.12.2015 14:46 12,4 C 12,8 C 11,1 C 86 % 0 lf 1016,2 hPa 0,0 l/m 0 min 0 min 73 W/m 14,6 km/h (3 Bft) 100,00 %
20.12.2015 14:48 12,4 C 12,8 C 11,1 C 86 % 0 lf 1016,2 hPa 0,0 l/m 0 min 0 min 72 W/m 16,7 km/h (3 Bft) 100,00 %
20.12.2015 14:50 12,4 C 12,8 C 11,1 C 86 % 0 lf 1016,2 hPa 0,0 l/m 0 min 0 min 74 W/m 14,6 km/h (3 Bft) 97,87 %
20.12.2015 14:52 12,4 C 12,8 C 11,1 C 86 % 0 lf 1016,3 hPa 0,0 l/m 0 min 0 min 74 W/m 16,7 km/h (3 Bft) 100,00 %
20.12.2015 14:54 12,4 C 12,8 C 11,1 C 86 % 0 lf 1016,2 hPa 0,0 l/m 0 min 0 min 74 W/m 12,6 km/h (3 Bft) 100,00 %
20.12.2015 14:56 12,5 C 12,8 C 11,1 C 86 % 0 lf 1016,2 hPa 0,0 l/m 0 min 0 min 74 W/m 14,6 km/h (3 Bft) 100,00 %
20.12.2015 14:58 12,4 C 12,8 C 11,1 C 86 % 0 lf 1016,2 hPa 0,0 l/m 0 min 0 min 74 W/m 12,6 km/h (3 Bft) 100,00 %
20.12.2015 15:00 12,4 C 12,8 C 11,1 C 86 % 0 lf 1016,2 hPa 0,0 l/m 0 min 0 min 71 W/m 12,6 km/h (3 Bft) 100,00 %
20.12.2015 15:02 12,5 C 12,8 C 11,1 C 85 % 0 lf 1016,2 hPa 0,0 l/m 0 min 0 min 70 W/m 14,6 km/h (3 Bft) 95,74 %
20.12.2015 15:04 12,4 C 12,8 C 11,1 C 85 % 0 lf 1016,2 hPa 0,0 l/m 0 min 0 min 69 W/m 12,6 km/h (3 Bft) 97,87 %
20.12.2015 15:06 12,4 C 12,8 C 11,1 C 85 % 0 lf 1016,3 hPa 0,0 l/m 0 min 0 min 68 W/m 14,6 km/h (3 Bft) 95,74 %
20.12.2015 15:08 12,5 C 12,8 C 11,1 C 85 % 0 lf 1016,3 hPa 0,0 l/m 0 min 0 min 64 W/m 12,6 km/h (3 Bft) 97,83 %
20.12.2015 15:10 12,5 C 12,8 C 11,1 C 85 % 0 lf 1016,3 hPa 0,0 l/m 0 min 0 min 62 W/m 12,6 km/h (3 Bft) 91,49 %
20.12.2015 15:12 12,5 C 12,8 C 11,1 C 85 % 0 lf 1016,2 hPa 0,0 l/m 0 min 0 min 62 W/m 12,6 km/h (3 Bft) 95,74 %
20.12.2015 15:14 12,5 C 12,8 C 11,1 C 85 % 0 lf 1016,2 hPa 0,0 l/m 0 min 0 min 60 W/m 10,5 km/h (2 Bft) 93,62 %
20.12.2015 15:16 12,5 C 12,8 C 11,1 C 85 % 0 lf 1016,3 hPa 0,0 l/m 0 min 0 min 57 W/m 12,6 km/h (3 Bft) 93,62 %
20.12.2015 15:18 12,5 C 12,8 C 11,1 C 85 % 0 lf 1016,3 hPa 0,0 l/m 0 min 0 min 54 W/m 16,7 km/h (3 Bft) 89,36 %
20.12.2015 15:20 12,5 C 12,8 C 11,1 C 85 % 0 lf 1016,2 hPa 0,0 l/m 0 min 0 min 53 W/m 10,5 km/h (2 Bft) 93,48 %
20.12.2015 15:22 12,5 C 12,8 C 11,1 C 85 % 0 lf 1016,3 hPa 0,0 l/m 0 min 0 min 51 W/m 10,5 km/h (2 Bft) 93,62 %
20.12.2015 15:24 12,4 C 12,8 C 11,1 C 85 % 0 lf 1016,3 hPa 0,0 l/m 0 min 0 min 47 W/m 12,6 km/h (3 Bft) 93,62 %
20.12.2015 15:26 12,4 C 12,8 C 11,1 C 85 % 0 lf 1016,4 hPa 0,0 l/m 0 min 0 min 46 W/m 14,6 km/h (3 Bft) 91,49 %
20.12.2015 15:28 12,4 C 12,8 C 11,1 C 85 % 0 lf 1016,4 hPa 0,0 l/m 0 min 0 min 44 W/m 12,6 km/h (3 Bft) 93,62 %
20.12.2015 15:30 12,4 C 12,8 C 11,1 C 85 % 0 lf 1016,3 hPa 0,0 l/m 0 min 0 min 42 W/m 10,5 km/h (2 Bft) 95,74 %
20.12.2015 15:32 12,4 C 12,8 C 11,1 C 85 % 0 lf 1016,3 hPa 0,0 l/m 0 min 0 min 42 W/m 12,6 km/h (3 Bft) 84,78 %
20.12.2015 15:34 12,4 C 12,2 C 10,6 C 85 % 0 lf 1016,3 hPa 0,0 l/m 0 min 0 min 40 W/m 12,6 km/h (3 Bft) 93,62 %
20.12.2015 15:36 12,4 C 12,2 C 10,6 C 85 % 0 lf 1016,5 hPa 0,0 l/m 0 min 0 min 37 W/m 10,5 km/h (2 Bft) 93,62 %
20.12.2015 15:38 12,4 C 12,2 C 10,6 C 85 % 0 lf 1016,6 hPa 0,0 l/m 0 min 0 min 33 W/m 12,6 km/h (3 Bft) 93,62 %
20.12.2015 15:40 12,4 C 12,2 C 10,6 C 85 % 0 lf 1016,6 hPa 0,0 l/m 0 min 0 min 33 W/m 10,5 km/h (2 Bft) 93,62 %
20.12.2015 15:42 12,4 C 12,2 C 10,6 C 85 % 0 lf 1016,6 hPa 0,0 l/m 0 min 0 min 35 W/m 10,5 km/h (2 Bft) 91,49 %
20.12.2015 15:44 12,3 C 12,2 C 10,6 C 85 % 0 lf 1016,6 hPa 0,0 l/m 0 min 0 min 34 W/m 10,5 km/h (2 Bft) 93,48 %
20.12.2015 15:46 12,3 C 12,2 C 10,6 C 85 % 0 lf 1016,6 hPa 0,0 l/m 0 min 0 min 32 W/m 10,5 km/h (2 Bft) 93,62 %
20.12.2015 15:48 12,3 C 12,2 C 10,6 C 85 % 0 lf 1016,6 hPa 0,0 l/m 0 min 0 min 30 W/m 8,4 km/h (2 Bft) 91,49 %
20.12.2015 15:50 12,3 C 12,2 C 10,6 C 85 % 0 lf 1016,6 hPa 0,0 l/m 0 min 0 min 27 W/m 8,4 km/h (2 Bft) 89,36 %
20.12.2015 15:52 12,3 C 12,2 C 10,6 C 85 % 0 lf 1016,6 hPa 0,0 l/m 0 min 0 min 26 W/m 14,6 km/h (3 Bft) 97,87 %
20.12.2015 15:54 12,3 C 12,2 C 10,6 C 85 % 0 lf 1016,6 hPa 0,0 l/m 0 min 0 min 25 W/m 14,6 km/h (3 Bft) 95,74 %
20.12.2015 15:56 12,3 C 12,2 C 10,6 C 85 % 0 lf 1016,6 hPa 0,0 l/m 0 min 0 min 24 W/m 14,6 km/h (3 Bft) 97,83 %
20.12.2015 15:58 12,2 C 12,2 C 10,6 C 85 % 0 lf 1016,7 hPa 0,0 l/m 0 min 0 min 18 W/m 14,6 km/h (3 Bft) 97,87 %
20.12.2015 16:00 12,2 C 12,2 C 10,6 C 85 % 0 lf 1016,6 hPa 0,0 l/m 0 min 0 min 18 W/m 10,5 km/h (2 Bft) 93,62 %
20.12.2015 16:02 12,2 C 12,2 C 10,6 C 85 % 0 lf 1016,6 hPa 0,0 l/m 0 min 0 min 18 W/m 12,6 km/h (3 Bft) 97,87 %
20.12.2015 16:04 12,2 C 12,2 C 10,6 C 85 % 0 lf 1016,7 hPa 0,0 l/m 0 min 0 min 18 W/m 12,6 km/h (3 Bft) 97,87 %
20.12.2015 16:06 12,2 C 12,2 C 10,6 C 85 % 0 lf 1016,7 hPa 0,0 l/m 0 min 0 min 18 W/m 10,5 km/h (2 Bft) 95,74 %
20.12.2015 16:08 12,2 C 12,2 C 10,6 C 85 % 0 lf 1016,7 hPa 0,0 l/m 0 min 0 min 18 W/m 12,6 km/h (3 Bft) 100,00 %
20.12.2015 16:10 12,2 C 12,2 C 10,6 C 85 % 0 lf 1016,7 hPa 0,0 l/m 0 min 0 min 15 W/m 10,5 km/h (2 Bft) 100,00 %
20.12.2015 16:12 12,1 C 12,2 C 10,6 C 85 % 0 lf 1016,8 hPa 0,0 l/m 0 min 0 min 0 W/m 8,4 km/h (2 Bft) 97,87 %
20.12.2015 16:14 12,1 C 12,2 C 10,6 C 85 % 0 lf 1016,8 hPa 0,0 l/m 0 min 0 min 5 W/m 8,4 km/h (2 Bft) 97,87 %
20.12.2015 16:16 12,1 C 12,2 C 10,6 C 86 % 0 lf 1016,9 hPa 0,0 l/m 0 min 0 min 14 W/m 10,5 km/h (2 Bft) 93,62 %
20.12.2015 16:18 12,1 C 12,2 C 10,0 C 86 % 0 lf 1016,9 hPa 0,0 l/m 0 min 0 min 12 W/m 8,4 km/h (2 Bft) 97,83 %
20.12.2015 16:20 12,1 C 12,2 C 10,0 C 86 % 0 lf 1016,8 hPa 0,0 l/m 0 min 0 min 12 W/m 8,4 km/h (2 Bft) 95,74 %
20.12.2015 16:22 12,1 C 12,2 C 10,0 C 86 % 0 lf 1016,9 hPa 0,0 l/m 0 min 0 min 12 W/m 6,3 km/h (2 Bft) 95,74 %
20.12.2015 16:24 12,1 C 12,2 C 10,0 C 86 % 0 lf 1016,9 hPa 0,0 l/m 0 min 0 min 11 W/m 10,5 km/h (2 Bft) 97,87 %
20.12.2015 16:26 12,0 C 12,2 C 10,0 C 86 % 0 lf 1016,8 hPa 0,0 l/m 0 min 0 min 10 W/m 6,3 km/h (2 Bft) 97,87 %
20.12.2015 16:28 12,0 C 12,2 C 10,0 C 86 % 0 lf 1016,8 hPa 0,0 l/m 0 min 0 min 9 W/m 8,4 km/h (2 Bft) 97,87 %
20.12.2015 16:30 12,0 C 11,7 C 10,0 C 86 % 0 lf 1016,8 hPa 0,0 l/m 0 min 0 min 9 W/m 6,3 km/h (2 Bft) 100,00 %
20.12.2015 16:32 12,0 C 11,7 C 10,0 C 86 % 0 lf 1016,8 hPa 0,0 l/m 0 min 0 min 9 W/m 6,3 km/h (2 Bft) 100,00 %
20.12.2015 16:34 11,9 C 11,7 C 10,0 C 86 % 0 lf 1016,9 hPa 0,0 l/m 0 min 0 min 8 W/m 6,3 km/h (2 Bft) 95,74 %
20.12.2015 16:36 11,9 C 11,7 C 10,0 C 86 % 0 lf 1016,8 hPa 0,0 l/m 0 min 0 min 7 W/m 6,3 km/h (2 Bft) 100,00 %
20.12.2015 16:38 11,9 C 11,7 C 10,0 C 86 % 0 lf 1016,9 hPa 0,0 l/m 0 min 0 min 7 W/m 6,3 km/h (2 Bft) 95,74 %
20.12.2015 16:40 11,9 C 11,7 C 10,0 C 86 % 0 lf 1016,9 hPa 0,0 l/m 0 min 0 min 7 W/m 8,4 km/h (2 Bft) 97,87 %
20.12.2015 16:42 11,9 C 11,7 C 10,0 C 86 % 0 lf 1016,9 hPa 0,0 l/m 0 min 0 min 7 W/m 6,3 km/h (2 Bft) 100,00 %
20.12.2015 16:44 11,9 C 11,7 C 10,0 C 86 % 0 lf 1016,9 hPa 0,0 l/m 0 min 0 min 7 W/m 8,4 km/h (2 Bft) 97,87 %
20.12.2015 16:46 11,9 C 11,7 C 9,4 C 86 % 0 lf 1016,8 hPa 0,0 l/m 0 min 0 min 7 W/m 8,4 km/h (2 Bft) 93,62 %
20.12.2015 16:48 11,8 C 11,7 C 9,4 C 86 % 0 lf 1016,8 hPa 0,0 l/m 0 min 0 min 7 W/m 8,4 km/h (2 Bft) 97,87 %
20.12.2015 16:50 11,8 C 11,7 C 9,4 C 86 % 0 lf 1016,8 hPa 0,0 l/m 0 min 0 min 7 W/m 8,4 km/h (2 Bft) 95,74 %
20.12.2015 16:52 11,8 C 11,7 C 9,4 C 86 % 0 lf 1016,8 hPa 0,0 l/m 0 min 0 min 7 W/m 8,4 km/h (2 Bft) 97,87 %
20.12.2015 16:54 11,8 C 11,7 C 9,4 C 86 % 0 lf 1016,9 hPa 0,0 l/m 0 min 0 min 7 W/m 8,4 km/h (2 Bft) 95,65 %
20.12.2015 16:56 11,8 C 11,7 C 9,4 C 86 % 0 lf 1016,9 hPa 0,0 l/m 0 min 0 min 7 W/m 6,3 km/h (2 Bft) 95,74 %
20.12.2015 16:58 11,8 C 11,7 C 9,4 C 86 % 0 lf 1016,9 hPa 0,0 l/m 0 min 0 min 7 W/m 6,3 km/h (2 Bft) 97,87 %
20.12.2015 17:00 11,7 C 11,7 C 9,4 C 86 % 0 lf 1016,9 hPa 0,0 l/m 0 min 0 min 7 W/m 6,3 km/h (2 Bft) 95,74 %
20.12.2015 17:02 11,7 C 11,7 C 9,4 C 87 % 0 lf 1016,9 hPa 0,0 l/m 0 min 0 min 7 W/m 6,3 km/h (2 Bft) 95,56 %
20.12.2015 17:04 11,7 C 11,7 C 9,4 C 87 % 0 lf 1016,9 hPa 0,0 l/m 0 min 0 min 7 W/m 8,4 km/h (2 Bft) 95,74 %
20.12.2015 17:06 11,7 C 11,7 C 9,4 C 87 % 0 lf 1016,9 hPa 0,0 l/m 0 min 0 min 7 W/m 6,3 km/h (2 Bft) 93,48 %
20.12.2015 17:08 11,7 C 11,7 C 9,4 C 87 % 0 lf 1016,9 hPa 0,0 l/m 0 min 0 min 7 W/m 6,3 km/h (2 Bft) 97,87 %
20.12.2015 17:10 11,6 C 11,7 C 9,4 C 87 % 0 lf 1016,9 hPa 0,0 l/m 0 min 0 min 7 W/m 6,3 km/h (2 Bft) 97,87 %
20.12.2015 17:12 11,6 C 11,7 C 9,4 C 87 % 0 lf 1016,8 hPa 0,0 l/m 0 min 0 min 7 W/m 6,3 km/h (2 Bft) 95,74 %
20.12.2015 17:14 11,6 C 11,7 C 9,4 C 87 % 0 lf 1016,9 hPa 0,0 l/m 0 min 0 min 7 W/m 8,4 km/h (2 Bft) 95,74 %
20.12.2015 17:16 11,6 C 11,1 C 9,4 C 87 % 0 lf 1016,9 hPa 0,0 l/m 0 min 0 min 7 W/m 6,3 km/h (2 Bft) 95,74 %
20.12.2015 17:18 11,6 C 11,7 C 9,4 C 87 % 0 lf 1016,9 hPa 0,0 l/m 0 min 0 min 7 W/m 10,5 km/h (2 Bft) 95,65 %
20.12.2015 17:20 11,5 C 11,1 C 9,4 C 87 % 0 lf 1016,9 hPa 0,0 l/m 0 min 0 min 7 W/m 10,5 km/h (2 Bft) 95,74 %
20.12.2015 17:22 11,5 C 11,1 C 9,4 C 87 % 0 lf 1016,9 hPa 0,0 l/m 0 min 0 min 7 W/m 6,3 km/h (2 Bft) 93,62 %
20.12.2015 17:24 11,4 C 11,1 C 9,4 C 87 % 0 lf 1016,9 hPa 0,0 l/m 0 min 0 min 7 W/m 8,4 km/h (2 Bft) 93,62 %
20.12.2015 17:26 11,4 C 11,1 C 9,4 C 87 % 0 lf 1016,9 hPa 0,0 l/m 0 min 0 min 7 W/m 8,4 km/h (2 Bft) 95,74 %
20.12.2015 17:28 11,4 C 11,1 C 9,4 C 87 % 0 lf 1016,9 hPa 0,0 l/m 0 min 0 min 7 W/m 8,4 km/h (2 Bft) 93,62 %
20.12.2015 17:30 11,4 C 11,1 C 9,4 C 87 % 0 lf 1016,9 hPa 0,0 l/m 0 min 0 min 7 W/m 6,3 km/h (2 Bft) 93,48 %
20.12.2015 17:32 11,4 C 11,1 C 9,4 C 87 % 0 lf 1016,9 hPa 0,0 l/m 0 min 0 min 7 W/m 8,4 km/h (2 Bft) 91,49 %
20.12.2015 17:34 11,4 C 11,1 C 9,4 C 88 % 0 lf 1016,9 hPa 0,0 l/m 0 min 0 min 7 W/m 6,3 km/h (2 Bft) 91,49 %
20.12.2015 17:36 11,4 C 11,1 C 9,4 C 88 % 0 lf 1016,9 hPa 0,0 l/m 0 min 0 min 7 W/m 8,4 km/h (2 Bft) 91,49 %
20.12.2015 17:38 11,3 C 11,1 C 9,4 C 87 % 0 lf 1016,9 hPa 0,0 l/m 0 min 0 min 7 W/m 10,5 km/h (2 Bft) 95,74 %
20.12.2015 17:40 11,3 C 11,1 C 9,4 C 88 % 0 lf 1016,9 hPa 0,0 l/m 0 min 0 min 7 W/m 8,4 km/h (2 Bft) 95,65 %
20.12.2015 17:42 11,3 C 11,1 C 9,4 C 88 % 0 lf 1016,9 hPa 0,0 l/m 0 min 0 min 7 W/m 8,4 km/h (2 Bft) 93,62 %
20.12.2015 17:44 11,3 C 11,1 C 9,4 C 88 % 0 lf 1016,9 hPa 0,0 l/m 0 min 0 min 7 W/m 8,4 km/h (2 Bft) 95,74 %
20.12.2015 17:46 11,3 C 11,1 C 9,4 C 88 % 0 lf 1017,0 hPa 0,0 l/m 0 min 0 min 7 W/m 8,4 km/h (2 Bft) 97,87 %
20.12.2015 17:48 11,3 C 11,1 C 9,4 C 88 % 0 lf 1017,0 hPa 0,0 l/m 0 min 0 min 7 W/m 8,4 km/h (2 Bft) 91,49 %
20.12.2015 17:50 11,3 C 11,1 C 9,4 C 88 % 0 lf 1017,0 hPa 0,0 l/m 0 min 0 min 7 W/m 6,3 km/h (2 Bft) 100,00 %
20.12.2015 17:52 11,2 C 11,1 C 9,4 C 88 % 0 lf 1017,0 hPa 0,0 l/m 0 min 0 min 7 W/m 6,3 km/h (2 Bft) 95,65 %
20.12.2015 17:54 11,2 C 11,1 C 9,4 C 88 % 0 lf 1017,1 hPa 0,0 l/m 0 min 0 min 7 W/m 8,4 km/h (2 Bft) 97,87 %
20.12.2015 17:56 11,2 C 11,1 C 9,4 C 88 % 0 lf 1017,0 hPa 0,0 l/m 0 min 0 min 7 W/m 6,3 km/h (2 Bft) 100,00 %
20.12.2015 17:58 11,2 C 11,1 C 9,4 C 88 % 0 lf 1017,0 hPa 0,0 l/m 0 min 0 min 7 W/m 6,3 km/h (2 Bft) 95,74 %
20.12.2015 18:00 11,2 C 11,1 C 9,4 C 88 % 0 lf 1017,0 hPa 0,0 l/m 0 min 0 min 7 W/m 6,3 km/h (2 Bft) 93,62 %
20.12.2015 18:02 11,2 C 11,1 C 9,4 C 88 % 0 lf 1017,1 hPa 0,0 l/m 0 min 0 min 7 W/m 8,4 km/h (2 Bft) 95,74 %
20.12.2015 18:06 11,2 C 11,1 C 9,4 C 88 % 0 lf 1017,0 hPa 0,0 l/m 0 min 0 min 7 W/m 8,4 km/h (2 Bft) 94,62 %
20.12.2015 18:08 11,2 C 11,1 C 9,4 C 88 % 0 lf 1017,0 hPa 0,0 l/m 0 min 0 min 7 W/m 8,4 km/h (2 Bft) 95,74 %
20.12.2015 18:10 11,2 C 11,1 C 9,4 C 88 % 0 lf 1017,1 hPa 0,0 l/m 0 min 0 min 7 W/m 8,4 km/h (2 Bft) 93,62 %
20.12.2015 18:12 11,2 C 11,1 C 9,4 C 88 % 0 lf 1017,0 hPa 0,0 l/m 0 min 0 min 7 W/m 8,4 km/h (2 Bft) 93,62 %
20.12.2015 18:14 11,2 C 11,1 C 9,4 C 88 % 0 lf 1017,0 hPa 0,0 l/m 0 min 0 min 7 W/m 8,4 km/h (2 Bft) 95,74 %
20.12.2015 18:16 11,1 C 11,1 C 9,4 C 88 % 0 lf 1017,1 hPa 0,0 l/m 0 min 0 min 7 W/m 8,4 km/h (2 Bft) 95,65 %
20.12.2015 18:18 11,1 C 11,1 C 9,4 C 88 % 0 lf 1017,1 hPa 0,0 l/m 0 min 0 min 7 W/m 8,4 km/h (2 Bft) 95,74 %
20.12.2015 18:20 11,1 C 11,1 C 9,4 C 88 % 0 lf 1017,0 hPa 0,0 l/m 0 min 0 min 7 W/m 8,4 km/h (2 Bft) 95,74 %
20.12.2015 18:22 11,1 C 11,1 C 9,4 C 88 % 0 lf 1017,0 hPa 0,0 l/m 0 min 0 min 7 W/m 10,5 km/h (2 Bft) 95,74 %
20.12.2015 18:24 11,1 C 11,1 C 9,4 C 88 % 0 lf 1017,0 hPa 0,0 l/m 0 min 0 min 7 W/m 10,5 km/h (2 Bft) 93,62 %
20.12.2015 18:26 11,1 C 11,1 C 9,4 C 88 % 0 lf 1017,0 hPa 0,0 l/m 0 min 0 min 7 W/m 10,5 km/h (2 Bft) 93,62 %
20.12.2015 18:28 11,1 C 11,1 C 9,4 C 88 % 0 lf 1017,0 hPa 0,0 l/m 0 min 0 min 7 W/m 8,4 km/h (2 Bft) 95,65 %
20.12.2015 18:30 11,1 C 11,1 C 9,4 C 88 % 0 lf 1017,0 hPa 0,0 l/m 0 min 0 min 7 W/m 8,4 km/h (2 Bft) 93,62 %
20.12.2015 18:32 11,1 C 11,1 C 9,4 C 88 % 0 lf 1017,0 hPa 0,0 l/m 0 min 0 min 7 W/m 8,4 km/h (2 Bft) 95,74 %
20.12.2015 18:34 11,1 C 11,1 C 9,4 C 88 % 0 lf 1017,0 hPa 0,0 l/m 0 min 0 min 7 W/m 8,4 km/h (2 Bft) 93,62 %
20.12.2015 18:36 11,1 C 11,1 C 9,4 C 88 % 0 lf 1017,1 hPa 0,0 l/m 0 min 0 min 7 W/m 6,3 km/h (2 Bft) 91,49 %
20.12.2015 18:38 11,1 C 11,1 C 9,4 C 88 % 0 lf 1017,0 hPa 0,0 l/m 0 min 0 min 7 W/m 10,5 km/h (2 Bft) 95,74 %
20.12.2015 18:40 11,0 C 11,1 C 9,4 C 88 % 0 lf 1017,0 hPa 0,0 l/m 0 min 0 min 7 W/m 8,4 km/h (2 Bft) 95,65 %
20.12.2015 18:42 11,0 C 11,1 C 9,4 C 88 % 0 lf 1017,2 hPa 0,0 l/m 0 min 0 min 7 W/m 8,4 km/h (2 Bft) 93,62 %
20.12.2015 18:44 11,0 C 11,1 C 9,4 C 88 % 0 lf 1017,1 hPa 0,0 l/m 0 min 0 min 7 W/m 10,5 km/h (2 Bft) 93,62 %
20.12.2015 18:46 11,0 C 11,1 C 9,4 C 88 % 0 lf 1017,2 hPa 0,0 l/m 0 min 0 min 7 W/m 8,4 km/h (2 Bft) 93,62 %
20.12.2015 18:48 11,0 C 11,1 C 9,4 C 88 % 0 lf 1017,2 hPa 0,0 l/m 0 min 0 min 7 W/m 6,3 km/h (2 Bft) 95,74 %
20.12.2015 18:50 11,0 C 11,1 C 9,4 C 88 % 0 lf 1017,2 hPa 0,0 l/m 0 min 0 min 7 W/m 8,4 km/h (2 Bft) 95,74 %
20.12.2015 18:52 11,0 C 11,1 C 9,4 C 88 % 0 lf 1017,1 hPa 0,0 l/m 0 min 0 min 7 W/m 6,3 km/h (2 Bft) 95,65 %
20.12.2015 18:54 10,9 C 11,1 C 9,4 C 88 % 0 lf 1017,2 hPa 0,0 l/m 0 min 0 min 7 W/m 8,4 km/h (2 Bft) 95,74 %
20.12.2015 18:56 10,9 C 11,1 C 9,4 C 88 % 0 lf 1017,2 hPa 0,0 l/m 0 min 0 min 7 W/m 6,3 km/h (2 Bft) 97,87 %
20.12.2015 18:58 10,9 C 10,6 C 9,4 C 89 % 0 lf 1017,2 hPa 0,0 l/m 0 min 0 min 7 W/m 6,3 km/h (2 Bft) 100,00 %
20.12.2015 19:00 10,9 C 10,6 C 8,9 C 89 % 0 lf 1017,2 hPa 0,0 l/m 0 min 0 min 7 W/m 6,3 km/h (2 Bft) 95,74 %
20.12.2015 19:02 10,9 C 10,6 C 8,9 C 89 % 0 lf 1017,3 hPa 0,0 l/m 0 min 0 min 7 W/m 8,4 km/h (2 Bft) 97,83 %
20.12.2015 19:04 10,9 C 10,6 C 8,9 C 89 % 0 lf 1017,2 hPa 0,0 l/m 0 min 0 min 7 W/m 6,3 km/h (2 Bft) 97,87 %
20.12.2015 19:06 10,9 C 10,6 C 8,9 C 89 % 0 lf 1017,3 hPa 0,0 l/m 0 min 0 min 7 W/m 4,2 km/h (1 Bft) 95,74 %
20.12.2015 19:08 10,9 C 10,6 C 8,9 C 89 % 0 lf 1017,3 hPa 0,0 l/m 0 min 0 min 7 W/m 6,3 km/h (2 Bft) 97,87 %
20.12.2015 19:10 10,9 C 10,6 C 8,9 C 89 % 0 lf 1017,3 hPa 0,0 l/m 0 min 0 min 7 W/m 6,3 km/h (2 Bft) 97,87 %
20.12.2015 19:12 10,9 C 10,6 C 8,9 C 89 % 0 lf 1017,3 hPa 0,0 l/m 0 min 0 min 7 W/m 8,4 km/h (2 Bft) 97,87 %
20.12.2015 19:14 10,8 C 10,6 C 8,9 C 89 % 0 lf 1017,4 hPa 0,0 l/m 0 min 0 min 7 W/m 6,3 km/h (2 Bft) 97,83 %
20.12.2015 19:16 10,8 C 10,6 C 8,9 C 89 % 0 lf 1017,4 hPa 0,0 l/m 0 min 0 min 7 W/m 6,3 km/h (2 Bft) 95,74 %
20.12.2015 19:18 10,8 C 11,1 C 8,9 C 89 % 0 lf 1017,3 hPa 0,0 l/m 0 min 0 min 7 W/m 6,3 km/h (2 Bft) 97,87 %
20.12.2015 19:20 10,8 C 11,1 C 9,4 C 89 % 0 lf 1017,4 hPa 0,0 l/m 0 min 0 min 7 W/m 10,5 km/h (2 Bft) 97,87 %
20.12.2015 19:22 10,8 C 11,1 C 9,4 C 89 % 0 lf 1017,3 hPa 0,0 l/m 0 min 0 min 7 W/m 14,6 km/h (3 Bft) 97,87 %
20.12.2015 19:24 10,8 C 11,1 C 9,4 C 89 % 0 lf 1017,4 hPa 0,0 l/m 0 min 0 min 7 W/m 8,4 km/h (2 Bft) 97,87 %
20.12.2015 19:26 10,8 C 11,1 C 9,4 C 89 % 0 lf 1017,4 hPa 0,0 l/m 0 min 0 min 7 W/m 14,6 km/h (3 Bft) 97,83 %
20.12.2015 19:28 10,8 C 11,7 C 9,4 C 89 % 0 lf 1017,4 hPa 0,0 l/m 0 min 0 min 7 W/m 14,6 km/h (3 Bft) 95,74 %
20.12.2015 19:30 10,8 C 11,7 C 9,4 C 89 % 0 lf 1017,4 hPa 0,0 l/m 0 min 0 min 7 W/m 10,5 km/h (2 Bft) 97,87 %
20.12.2015 19:32 10,8 C 11,7 C 9,4 C 89 % 0 lf 1017,4 hPa 0,0 l/m 0 min 0 min 7 W/m 10,5 km/h (2 Bft) 97,87 %
20.12.2015 19:34 10,8 C 11,7 C 9,4 C 89 % 0 lf 1017,3 hPa 0,0 l/m 0 min 0 min 7 W/m 12,6 km/h (3 Bft) 97,87 %
20.12.2015 19:36 10,9 C 11,7 C 9,4 C 89 % 0 lf 1017,3 hPa 0,0 l/m 0 min 0 min 7 W/m 12,6 km/h (3 Bft) 100,00 %
20.12.2015 19:38 10,9 C 12,2 C 10,0 C 89 % 0 lf 1017,4 hPa 0,0 l/m 0 min 0 min 7 W/m 12,6 km/h (3 Bft) 100,00 %
20.12.2015 19:40 10,9 C 12,2 C 10,0 C 89 % 0 lf 1017,4 hPa 0,0 l/m 0 min 0 min 7 W/m 14,6 km/h (3 Bft) 100,00 %
20.12.2015 19:42 11,0 C 12,2 C 10,0 C 89 % 0 lf 1017,4 hPa 0,0 l/m 0 min 0 min 7 W/m 16,7 km/h (3 Bft) 100,00 %
20.12.2015 19:44 11,0 C 12,2 C 10,0 C 89 % 0 lf 1017,4 hPa 0,0 l/m 0 min 0 min 7 W/m 14,6 km/h (3 Bft) 100,00 %
20.12.2015 19:46 11,1 C 12,2 C 10,0 C 89 % 0 lf 1017,4 hPa 0,0 l/m 0 min 0 min 7 W/m 16,7 km/h (3 Bft) 95,74 %
20.12.2015 19:48 11,2 C 12,8 C 10,6 C 89 % 0 lf 1017,4 hPa 0,0 l/m 0 min 0 min 7 W/m 16,7 km/h (3 Bft) 95,74 %
20.12.2015 19:50 11,2 C 12,8 C 10,6 C 89 % 0 lf 1017,4 hPa 0,0 l/m 0 min 0 min 7 W/m 20,9 km/h (4 Bft) 100,00 %
20.12.2015 19:52 11,3 C 12,8 C 10,6 C 88 % 0 lf 1017,4 hPa 0,0 l/m 0 min 0 min 7 W/m 16,7 km/h (3 Bft) 97,87 %
20.12.2015 19:54 11,4 C 12,8 C 10,6 C 88 % 0 lf 1017,4 hPa 0,0 l/m 0 min 0 min 7 W/m 14,6 km/h (3 Bft) 100,00 %
20.12.2015 19:56 11,4 C 12,8 C 10,6 C 88 % 0 lf 1017,4 hPa 0,0 l/m 0 min 0 min 7 W/m 14,6 km/h (3 Bft) 97,87 %
20.12.2015 19:58 11,5 C 12,8 C 10,6 C 88 % 0 lf 1017,5 hPa 0,0 l/m 0 min 0 min 7 W/m 23,0 km/h (4 Bft) 100,00 %
20.12.2015 20:00 11,6 C 12,8 C 10,6 C 87 % 0 lf 1017,5 hPa 0,0 l/m 0 min 0 min 7 W/m 18,8 km/h (3 Bft) 97,87 %
20.12.2015 20:02 11,7 C 12,8 C 10,6 C 87 % 0 lf 1017,4 hPa 0,0 l/m 0 min 0 min 7 W/m 27,2 km/h (4 Bft) 100,00 %
20.12.2015 20:04 11,8 C 12,8 C 11,1 C 87 % 0 lf 1017,4 hPa 0,0 l/m 0 min 0 min 7 W/m 18,8 km/h (3 Bft) 97,87 %
20.12.2015 20:06 11,8 C 12,8 C 10,6 C 86 % 0 lf 1017,5 hPa 0,0 l/m 0 min 0 min 7 W/m 25,1 km/h (4 Bft) 100,00 %
20.12.2015 20:08 11,9 C 12,8 C 11,1 C 86 % 0 lf 1017,5 hPa 0,0 l/m 0 min 0 min 7 W/m 23,0 km/h (4 Bft) 100,00 %
20.12.2015 20:10 12,0 C 12,8 C 11,1 C 86 % 0 lf 1017,5 hPa 0,0 l/m 0 min 0 min 7 W/m 20,9 km/h (4 Bft) 97,87 %
20.12.2015 20:12 12,1 C 12,8 C 11,1 C 85 % 0 lf 1017,5 hPa 0,0 l/m 0 min 0 min 7 W/m 23,0 km/h (4 Bft) 95,74 %
20.12.2015 20:14 12,2 C 12,8 C 11,1 C 85 % 0 lf 1017,4 hPa 0,0 l/m 0 min 0 min 7 W/m 18,8 km/h (3 Bft) 100,00 %
20.12.2015 20:16 12,2 C 13,3 C 11,1 C 85 % 0 lf 1017,4 hPa 0,0 l/m 0 min 0 min 7 W/m 14,6 km/h (3 Bft) 100,00 %
20.12.2015 20:18 12,3 C 12,8 C 11,1 C 84 % 0 lf 1017,4 hPa 0,0 l/m 0 min 0 min 7 W/m 14,6 km/h (3 Bft) 95,74 %
20.12.2015 20:20 12,3 C 12,8 C 11,1 C 84 % 0 lf 1017,5 hPa 0,0 l/m 0 min 0 min 7 W/m 23,0 km/h (4 Bft) 100,00 %
20.12.2015 20:22 12,4 C 12,8 C 11,1 C 84 % 0 lf 1017,4 hPa 0,0 l/m 0 min 0 min 7 W/m 25,1 km/h (4 Bft) 97,96 %
20.12.2015 20:24 12,4 C 12,8 C 11,1 C 84 % 0 lf 1017,4 hPa 0,0 l/m 0 min 0 min 7 W/m 14,6 km/h (3 Bft) 95,65 %
20.12.2015 20:26 12,4 C 12,8 C 11,1 C 84 % 0 lf 1017,4 hPa 0,0 l/m 0 min 0 min 7 W/m 20,9 km/h (4 Bft) 97,87 %
20.12.2015 20:28 12,5 C 13,3 C 11,1 C 83 % 0 lf 1017,4 hPa 0,0 l/m 0 min 0 min 7 W/m 20,9 km/h (4 Bft) 100,00 %
20.12.2015 20:30 12,5 C 13,3 C 11,1 C 83 % 0 lf 1017,5 hPa 0,0 l/m 0 min 0 min 7 W/m 25,1 km/h (4 Bft) 100,00 %
20.12.2015 20:32 12,6 C 13,3 C 11,1 C 83 % 0 lf 1017,4 hPa 0,0 l/m 0 min 0 min 7 W/m 14,6 km/h (3 Bft) 100,00 %
20.12.2015 20:34 12,6 C 13,3 C 11,1 C 83 % 0 lf 1017,4 hPa 0,0 l/m 0 min 0 min 7 W/m 23,0 km/h (4 Bft) 97,87 %
20.12.2015 20:36 12,7 C 13,3 C 11,1 C 82 % 0 lf 1017,4 hPa 0,0 l/m 0 min 0 min 7 W/m 20,9 km/h (4 Bft) 95,65 %
20.12.2015 20:38 12,7 C 13,3 C 11,1 C 82 % 0 lf 1017,4 hPa 0,0 l/m 0 min 0 min 7 W/m 23,0 km/h (4 Bft) 89,36 %
20.12.2015 20:40 12,7 C 13,3 C 11,1 C 82 % 0 lf 1017,3 hPa 0,0 l/m 0 min 0 min 7 W/m 20,9 km/h (4 Bft) 95,74 %
20.12.2015 20:42 12,8 C 13,3 C 11,1 C 82 % 0 lf 1017,3 hPa 0,0 l/m 0 min 0 min 7 W/m 23,0 km/h (4 Bft) 97,87 %
20.12.2015 20:44 12,8 C 13,3 C 11,1 C 82 % 0 lf 1017,3 hPa 0,0 l/m 0 min 0 min 7 W/m 18,8 km/h (3 Bft) 93,62 %
20.12.2015 20:46 12,8 C 13,3 C 11,1 C 82 % 0 lf 1017,3 hPa 0,0 l/m 0 min 0 min 7 W/m 14,6 km/h (3 Bft) 97,87 %
20.12.2015 20:48 12,8 C 13,3 C 11,1 C 82 % 0 lf 1017,3 hPa 0,0 l/m 0 min 0 min 7 W/m 14,6 km/h (3 Bft) 97,83 %
20.12.2015 20:50 12,8 C 13,3 C 11,1 C 82 % 0 lf 1017,3 hPa 0,0 l/m 0 min 0 min 7 W/m 23,0 km/h (4 Bft) 93,62 %
20.12.2015 20:52 12,8 C 13,3 C 11,1 C 82 % 0 lf 1017,4 hPa 0,0 l/m 0 min 0 min 7 W/m 16,7 km/h (3 Bft) 95,74 %
20.12.2015 20:54 12,8 C 12,8 C 11,1 C 82 % 0 lf 1017,4 hPa 0,0 l/m 0 min 0 min 7 W/m 16,7 km/h (3 Bft) 91,49 %
20.12.2015 20:56 12,8 C 12,8 C 11,1 C 81 % 0 lf 1017,4 hPa 0,0 l/m 0 min 0 min 7 W/m 14,6 km/h (3 Bft) 89,36 %
20.12.2015 20:58 12,8 C 12,8 C 11,1 C 81 % 0 lf 1017,5 hPa 0,0 l/m 0 min 0 min 7 W/m 25,1 km/h (4 Bft) 91,49 %
20.12.2015 21:00 12,9 C 12,8 C 11,1 C 81 % 0 lf 1017,5 hPa 0,0 l/m 0 min 0 min 7 W/m 18,8 km/h (3 Bft) 91,30 %
20.12.2015 21:02 12,9 C 12,8 C 11,1 C 81 % 0 lf 1017,5 hPa 0,0 l/m 0 min 0 min 7 W/m 23,0 km/h (4 Bft) 89,36 %
20.12.2015 21:04 12,9 C 13,3 C 11,1 C 81 % 0 lf 1017,5 hPa 0,0 l/m 0 min 0 min 7 W/m 27,2 km/h (4 Bft) 91,49 %
20.12.2015 21:06 12,9 C 13,3 C 11,1 C 81 % 0 lf 1017,5 hPa 0,0 l/m 0 min 0 min 7 W/m 25,1 km/h (4 Bft) 85,11 %
20.12.2015 21:08 12,9 C 12,8 C 11,1 C 81 % 0 lf 1017,5 hPa 0,0 l/m 0 min 0 min 7 W/m 18,8 km/h (3 Bft) 91,49 %
20.12.2015 21:10 12,9 C 12,8 C 11,1 C 81 % 0 lf 1017,6 hPa 0,0 l/m 0 min 0 min 7 W/m 14,6 km/h (3 Bft) 91,30 %
20.12.2015 21:12 12,9 C 12,8 C 11,1 C 81 % 0 lf 1017,7 hPa 0,0 l/m 0 min 0 min 7 W/m 25,1 km/h (4 Bft) 91,49 %
20.12.2015 21:14 12,9 C 12,8 C 11,1 C 81 % 0 lf 1017,6 hPa 0,0 l/m 0 min 0 min 7 W/m 18,8 km/h (3 Bft) 91,49 %
20.12.2015 21:16 12,9 C 12,8 C 11,1 C 81 % 0 lf 1017,6 hPa 0,0 l/m 0 min 0 min 7 W/m 16,7 km/h (3 Bft) 91,49 %
20.12.2015 21:18 12,9 C 13,3 C 11,1 C 81 % 0 lf 1017,8 hPa 0,0 l/m 0 min 0 min 7 W/m 37,7 km/h (5 Bft) 89,36 %
20.12.2015 21:20 12,9 C 13,3 C 11,1 C 81 % 0 lf 1017,8 hPa 0,0 l/m 0 min 0 min 7 W/m 29,3 km/h (5 Bft) 89,36 %
20.12.2015 21:22 12,9 C 13,3 C 11,1 C 81 % 0 lf 1017,9 hPa 0,0 l/m 0 min 0 min 7 W/m 25,1 km/h (4 Bft) 89,13 %
20.12.2015 21:24 12,9 C 13,3 C 11,1 C 81 % 0 lf 1017,9 hPa 0,0 l/m 0 min 0 min 7 W/m 27,2 km/h (4 Bft) 91,49 %
20.12.2015 21:26 12,9 C 13,3 C 11,1 C 81 % 0 lf 1017,9 hPa 0,0 l/m 0 min 0 min 7 W/m 25,1 km/h (4 Bft) 93,62 %
20.12.2015 21:28 12,9 C 13,3 C 11,1 C 81 % 0 lf 1017,9 hPa 0,0 l/m 0 min 0 min 7 W/m 23,0 km/h (4 Bft) 91,49 %
20.12.2015 21:30 12,9 C 13,3 C 11,1 C 81 % 0 lf 1018,0 hPa 0,0 l/m 0 min 0 min 7 W/m 27,2 km/h (4 Bft) 89,36 %
20.12.2015 21:32 12,9 C 13,3 C 11,1 C 81 % 0 lf 1017,9 hPa 0,0 l/m 0 min 0 min 7 W/m 14,6 km/h (3 Bft) 93,62 %
20.12.2015 21:34 13,0 C 13,3 C 11,1 C 81 % 0 lf 1017,7 hPa 0,0 l/m 0 min 0 min 7 W/m 20,9 km/h (4 Bft) 93,48 %
20.12.2015 21:36 12,9 C 13,3 C 11,1 C 81 % 0 lf 1017,6 hPa 0,0 l/m 0 min 0 min 7 W/m 25,1 km/h (4 Bft) 91,49 %
20.12.2015 21:38 13,0 C 13,3 C 11,1 C 81 % 0 lf 1017,6 hPa 0,0 l/m 0 min 0 min 7 W/m 20,9 km/h (4 Bft) 91,49 %
20.12.2015 21:40 13,0 C 13,3 C 11,1 C 81 % 0 lf 1017,6 hPa 0,0 l/m 0 min 0 min 7 W/m 25,1 km/h (4 Bft) 95,74 %
20.12.2015 21:42 12,9 C 12,8 C 11,1 C 81 % 0 lf 1017,6 hPa 0,0 l/m 0 min 0 min 7 W/m 16,7 km/h (3 Bft) 95,74 %
20.12.2015 21:44 12,9 C 12,8 C 11,1 C 81 % 0 lf 1017,5 hPa 0,0 l/m 0 min 0 min 7 W/m 14,6 km/h (3 Bft) 95,74 %
20.12.2015 21:46 12,9 C 12,8 C 11,1 C 81 % 0 lf 1017,6 hPa 0,0 l/m 0 min 0 min 7 W/m 14,6 km/h (3 Bft) 100,00 %
20.12.2015 21:48 12,9 C 12,8 C 11,1 C 81 % 0 lf 1017,6 hPa 0,0 l/m 0 min 0 min 7 W/m 14,6 km/h (3 Bft) 95,74 %
20.12.2015 21:50 12,9 C 12,8 C 11,1 C 81 % 0 lf 1017,6 hPa 0,0 l/m 0 min 0 min 7 W/m 18,8 km/h (3 Bft) 95,74 %
20.12.2015 21:52 12,9 C 12,8 C 11,1 C 81 % 0 lf 1017,6 hPa 0,0 l/m 0 min 0 min 7 W/m 18,8 km/h (3 Bft) 100,00 %
20.12.2015 21:54 12,9 C 13,3 C 11,1 C 81 % 0 lf 1017,6 hPa 0,0 l/m 0 min 0 min 7 W/m 16,7 km/h (3 Bft) 93,62 %
20.12.2015 21:56 12,9 C 12,8 C 11,1 C 81 % 0 lf 1017,5 hPa 0,0 l/m 0 min 0 min 7 W/m 18,8 km/h (3 Bft) 100,00 %
20.12.2015 21:58 12,9 C 12,8 C 11,1 C 81 % 0 lf 1017,5 hPa 0,0 l/m 0 min 0 min 7 W/m 23,0 km/h (4 Bft) 100,00 %
20.12.2015 22:00 12,9 C 12,8 C 11,1 C 81 % 0 lf 1017,6 hPa 0,0 l/m 0 min 0 min 7 W/m 18,8 km/h (3 Bft) 97,87 %
20.12.2015 22:02 12,9 C 12,8 C 11,1 C 81 % 0 lf 1017,5 hPa 0,0 l/m 0 min 0 min 7 W/m 14,6 km/h (3 Bft) 100,00 %
20.12.2015 22:04 12,9 C 12,8 C 11,1 C 81 % 0 lf 1017,7 hPa 0,0 l/m 0 min 0 min 7 W/m 20,9 km/h (4 Bft) 97,87 %
20.12.2015 22:06 12,9 C 12,8 C 11,1 C 81 % 0 lf 1017,7 hPa 0,0 l/m 0 min 0 min 7 W/m 18,8 km/h (3 Bft) 100,00 %
20.12.2015 22:08 12,9 C 12,8 C 11,1 C 81 % 0 lf 1017,9 hPa 0,0 l/m 0 min 0 min 7 W/m 14,6 km/h (3 Bft) 97,83 %
20.12.2015 22:10 12,9 C 12,8 C 11,1 C 81 % 0 lf 1018,0 hPa 0,0 l/m 0 min 0 min 7 W/m 20,9 km/h (4 Bft) 97,87 %
20.12.2015 22:12 12,9 C 12,8 C 11,1 C 81 % 0 lf 1018,0 hPa 0,0 l/m 0 min 0 min 7 W/m 23,0 km/h (4 Bft) 100,00 %
20.12.2015 22:14 12,9 C 12,8 C 11,1 C 81 % 0 lf 1018,0 hPa 0,0 l/m 0 min 0 min 7 W/m 20,9 km/h (4 Bft) 100,00 %
20.12.2015 22:16 12,9 C 12,8 C 11,1 C 81 % 0 lf 1018,0 hPa 0,0 l/m 0 min 0 min 7 W/m 12,6 km/h (3 Bft) 100,00 %
20.12.2015 22:18 12,9 C 12,8 C 11,1 C 81 % 0 lf 1018,0 hPa 0,0 l/m 0 min 0 min 7 W/m 14,6 km/h (3 Bft) 91,49 %
20.12.2015 22:20 12,9 C 12,8 C 11,1 C 81 % 0 lf 1018,0 hPa 0,0 l/m 0 min 0 min 7 W/m 16,7 km/h (3 Bft) 100,00 %
20.12.2015 22:22 12,9 C 12,8 C 11,1 C 81 % 0 lf 1018,0 hPa 0,0 l/m 0 min 0 min 7 W/m 18,8 km/h (3 Bft) 100,00 %
20.12.2015 22:24 12,8 C 12,8 C 11,1 C 81 % 0 lf 1018,0 hPa 0,0 l/m 0 min 0 min 7 W/m 16,7 km/h (3 Bft) 97,87 %
20.12.2015 22:26 12,8 C 12,8 C 11,1 C 81 % 0 lf 1018,0 hPa 0,0 l/m 0 min 0 min 7 W/m 18,8 km/h (3 Bft) 100,00 %
20.12.2015 22:28 12,8 C 12,8 C 11,1 C 81 % 0 lf 1018,0 hPa 0,0 l/m 0 min 0 min 7 W/m 16,7 km/h (3 Bft) 97,87 %
20.12.2015 22:30 12,8 C 12,8 C 11,1 C 81 % 0 lf 1018,0 hPa 0,0 l/m 0 min 0 min 7 W/m 20,9 km/h (4 Bft) 100,00 %
20.12.2015 22:32 12,8 C 12,8 C 11,1 C 81 % 0 lf 1018,0 hPa 0,0 l/m 0 min 0 min 7 W/m 16,7 km/h (3 Bft) 100,00 %
20.12.2015 22:34 12,8 C 12,8 C 11,1 C 81 % 0 lf 1018,0 hPa 0,0 l/m 0 min 0 min 7 W/m 18,8 km/h (3 Bft) 100,00 %
20.12.2015 22:36 12,8 C 12,8 C 11,1 C 81 % 0 lf 1018,0 hPa 0,0 l/m 0 min 0 min 7 W/m 12,6 km/h (3 Bft) 95,74 %
20.12.2015 22:38 12,8 C 12,8 C 11,1 C 81 % 0 lf 1018,0 hPa 0,0 l/m 0 min 0 min 7 W/m 14,6 km/h (3 Bft) 100,00 %
20.12.2015 22:40 12,8 C 12,8 C 11,1 C 81 % 0 lf 1018,0 hPa 0,0 l/m 0 min 0 min 7 W/m 18,8 km/h (3 Bft) 97,87 %
20.12.2015 22:42 12,8 C 12,8 C 11,1 C 81 % 0 lf 1018,0 hPa 0,0 l/m 0 min 0 min 7 W/m 25,1 km/h (4 Bft) 100,00 %
20.12.2015 22:44 12,7 C 12,8 C 11,1 C 82 % 0 lf 1018,0 hPa 0,0 l/m 0 min 0 min 7 W/m 20,9 km/h (4 Bft) 100,00 %
20.12.2015 22:46 12,7 C 12,8 C 11,1 C 82 % 0 lf 1018,0 hPa 0,0 l/m 0 min 0 min 7 W/m 12,6 km/h (3 Bft) 97,87 %
20.12.2015 22:48 12,7 C 12,8 C 11,1 C 82 % 0 lf 1018,0 hPa 0,0 l/m 0 min 0 min 7 W/m 14,6 km/h (3 Bft) 97,87 %
20.12.2015 22:50 12,7 C 12,8 C 11,1 C 82 % 0 lf 1017,8 hPa 0,0 l/m 0 min 0 min 7 W/m 14,6 km/h (3 Bft) 100,00 %
20.12.2015 22:52 12,7 C 12,8 C 11,1 C 82 % 0 lf 1017,7 hPa 0,0 l/m 0 min 0 min 7 W/m 12,6 km/h (3 Bft) 97,87 %
20.12.2015 22:54 12,7 C 12,8 C 11,1 C 82 % 0 lf 1017,9 hPa 0,0 l/m 0 min 0 min 7 W/m 18,8 km/h (3 Bft) 97,87 %
20.12.2015 22:56 12,7 C 12,8 C 11,1 C 82 % 0 lf 1017,8 hPa 0,0 l/m 0 min 0 min 7 W/m 14,6 km/h (3 Bft) 97,83 %
20.12.2015 22:58 12,7 C 12,8 C 11,1 C 82 % 0 lf 1017,9 hPa 0,0 l/m 0 min 0 min 7 W/m 10,5 km/h (2 Bft) 95,74 %
20.12.2015 23:00 12,7 C 12,8 C 11,1 C 82 % 0 lf 1018,0 hPa 0,0 l/m 0 min 0 min 7 W/m 16,7 km/h (3 Bft) 97,87 %
20.12.2015 23:02 12,7 C 12,8 C 11,1 C 82 % 0 lf 1018,0 hPa 0,0 l/m 0 min 0 min 7 W/m 16,7 km/h (3 Bft) 100,00 %
20.12.2015 23:04 12,7 C 12,8 C 11,1 C 82 % 0 lf 1017,9 hPa 0,0 l/m 0 min 0 min 7 W/m 18,8 km/h (3 Bft) 97,87 %
20.12.2015 23:06 12,7 C 12,8 C 11,1 C 82 % 0 lf 1018,0 hPa 0,0 l/m 0 min 0 min 7 W/m 10,5 km/h (2 Bft) 97,87 %
20.12.2015 23:08 12,6 C 12,8 C 11,1 C 82 % 0 lf 1018,0 hPa 0,0 l/m 0 min 0 min 7 W/m 16,7 km/h (3 Bft) 97,83 %
20.12.2015 23:10 12,6 C 12,8 C 11,1 C 82 % 0 lf 1018,0 hPa 0,0 l/m 0 min 0 min 7 W/m 12,6 km/h (3 Bft) 95,74 %
20.12.2015 23:12 12,6 C 12,8 C 11,1 C 82 % 0 lf 1018,0 hPa 0,0 l/m 0 min 0 min 7 W/m 14,6 km/h (3 Bft) 97,87 %
20.12.2015 23:14 12,6 C 12,8 C 11,1 C 82 % 0 lf 1018,0 hPa 0,0 l/m 0 min 0 min 7 W/m 20,9 km/h (4 Bft) 97,87 %
20.12.2015 23:16 12,6 C 12,8 C 11,1 C 82 % 0 lf 1018,0 hPa 0,0 l/m 0 min 0 min 7 W/m 18,8 km/h (3 Bft) 95,74 %
20.12.2015 23:18 12,6 C 12,8 C 11,1 C 82 % 0 lf 1018,0 hPa 0,0 l/m 0 min 0 min 7 W/m 20,9 km/h (4 Bft) 95,74 %
20.12.2015 23:20 12,6 C 12,8 C 11,1 C 82 % 0 lf 1018,0 hPa 0,0 l/m 0 min 0 min 7 W/m 16,7 km/h (3 Bft) 95,65 %
20.12.2015 23:22 12,6 C 12,8 C 11,1 C 82 % 0 lf 1017,9 hPa 0,0 l/m 0 min 0 min 7 W/m 16,7 km/h (3 Bft) 95,74 %
20.12.2015 23:24 12,6 C 12,8 C 11,1 C 82 % 0 lf 1017,9 hPa 0,0 l/m 0 min 0 min 7 W/m 23,0 km/h (4 Bft) 95,74 %
20.12.2015 23:26 12,6 C 12,8 C 11,1 C 83 % 0 lf 1017,9 hPa 0,0 l/m 0 min 0 min 7 W/m 14,6 km/h (3 Bft) 95,74 %
20.12.2015 23:28 12,6 C 12,8 C 11,1 C 83 % 0 lf 1017,9 hPa 0,0 l/m 0 min 0 min 7 W/m 16,7 km/h (3 Bft) 93,62 %
20.12.2015 23:30 12,6 C 12,8 C 11,1 C 82 % 0 lf 1018,0 hPa 0,0 l/m 0 min 0 min 7 W/m 18,8 km/h (3 Bft) 95,74 %
20.12.2015 23:32 12,6 C 12,8 C 11,1 C 82 % 0 lf 1018,0 hPa 0,0 l/m 0 min 0 min 7 W/m 10,5 km/h (2 Bft) 100,00 %
20.12.2015 23:34 12,6 C 12,8 C 11,1 C 82 % 0 lf 1018,1 hPa 0,0 l/m 0 min 0 min 7 W/m 23,0 km/h (4 Bft) 100,00 %
20.12.2015 23:36 12,6 C 12,8 C 11,1 C 82 % 0 lf 1018,1 hPa 0,0 l/m 0 min 0 min 7 W/m 16,7 km/h (3 Bft) 100,00 %
20.12.2015 23:38 12,6 C 12,8 C 11,1 C 83 % 0 lf 1018,1 hPa 0,0 l/m 0 min 0 min 7 W/m 25,1 km/h (4 Bft) 91,49 %
20.12.2015 23:40 12,6 C 12,8 C 11,1 C 83 % 0 lf 1018,0 hPa 0,0 l/m 0 min 0 min 7 W/m 25,1 km/h (4 Bft) 97,87 %
20.12.2015 23:42 12,7 C 12,8 C 11,1 C 83 % 0 lf 1018,0 hPa 0,0 l/m 0 min 0 min 7 W/m 23,0 km/h (4 Bft) 100,00 %
20.12.2015 23:44 12,7 C 12,8 C 11,1 C 83 % 0 lf 1018,0 hPa 0,0 l/m 0 min 0 min 7 W/m 27,2 km/h (4 Bft) 95,74 %
20.12.2015 23:46 12,7 C 12,8 C 11,1 C 83 % 0 lf 1017,9 hPa 0,0 l/m 0 min 0 min 7 W/m 20,9 km/h (4 Bft) 95,74 %
20.12.2015 23:48 12,7 C 12,8 C 11,1 C 83 % 0 lf 1017,9 hPa 0,0 l/m 0 min 0 min 7 W/m 16,7 km/h (3 Bft) 93,62 %
20.12.2015 23:50 12,7 C 12,8 C 11,1 C 83 % 2 lf 1018,0 hPa 0,0 l/m 0 min 2 min 7 W/m 18,8 km/h (3 Bft) 95,74 %
20.12.2015 23:52 12,7 C 12,8 C 11,1 C 83 % 3 lf 1017,9 hPa 0,0 l/m 0 min 2 min 7 W/m 16,7 km/h (3 Bft) 93,62 %
20.12.2015 23:54 12,7 C 12,8 C 10,6 C 83 % 1 lf 1018,0 hPa 0,0 l/m 0 min 2 min 7 W/m 23,0 km/h (4 Bft) 95,65 %
20.12.2015 23:56 12,7 C 12,8 C 10,6 C 83 % 1 lf 1018,0 hPa 0,0 l/m 0 min 2 min 7 W/m 20,9 km/h (4 Bft) 93,62 %
20.12.2015 23:58 12,7 C 12,2 C 10,6 C 83 % 1 lf 1018,1 hPa 0,0 l/m 0 min 2 min 7 W/m 20,9 km/h (4 Bft) 95,74 %
_ Min-Zeit 08:56 06:32 07:46 20:56 00:00 07:14 - - - - 19:06 15:32
Minimum _ 9,7 C 10,0 C 8,3 C 81 % 0 lf 1014,3 hPa - - - - 4,2 km/h (1 Bft) 84,78 %
_ Max-Zeit 21:30 14:00 12:42 00:00 23:52 23:34 00:00 12:38 23:50 12:40 21:18 00:02
Maximum _ 13,0 C 13,9 C 11,7 C 92 % 3 lf 1018,1 hPa 0,0 l/m 2 min 2 min 180 W/m 37,7 km/h
SW (5 Bft)
100,00 %
Durchschnitt _ 11,2 C 11,5 C 9,9 C 88 % 0 lf 1016,2 hPa #0,0 l/m #22 min. #10 min. 36 W/m 16,4 km/h (3 Bft) 96,11 %
© 2015 W. Hausmann